GEFSSE_prec_meanprecacc_012.txt.gz
Total_Precipitation_Accumulation
0.00 0.00 0.00 0.00 0.00 0.00 0.00 0.00 0.00 0.00 0.00 0.00 0.00 0.00 0.00 0.00 0.00 0.00 0.00 0.00 0.00 0.00 0.00 0.00 0.00 0.00 0.00 0.00 0.00 0.00 0.00 0.00 0.00 0.00 0.00 0.00 0.00 0.00 0.00 0.00 0.00 0.00 0.00
0.00 0.00 0.00 0.00 0.00 0.00 0.00 0.00 0.00 0.00 0.00 0.00 0.00 0.00 0.00 0.00 0.00 0.00 0.00 0.00 0.00 0.00 0.00 0.00 0.00 0.00 0.00 0.00 0.00 0.00 0.00 0.00 0.00 0.00 0.00 0.00 0.00 0.00 0.00 0.00 0.00 0.00 0.00
0.00 0.00 0.00 0.00 0.00 0.00 0.00 0.00 0.00 0.00 0.00 0.00 0.00 0.00 0.00 0.00 0.00 0.00 0.00 0.00 0.00 0.00 0.00 0.00 0.00 0.00 0.00 0.00 0.00 0.00 0.00 0.00 0.00 0.00 0.00 0.00 0.00 0.00 0.00 0.00 0.00 0.00 0.00
0.00 0.00 0.00 0.00 0.00 0.00 0.00 0.00 0.00 0.00 0.00 0.00 0.00 0.00 0.00 0.00 0.00 0.00 0.00 0.00 0.00 0.00 0.00 0.00 0.00 0.00 0.00 0.00 0.00 0.00 0.00 0.00 0.00 0.00 0.00 0.01 0.01 0.00 0.00 0.00 0.00 0.00 0.00
0.00 0.00 0.00 0.00 0.00 0.00 0.00 0.00 0.00 0.00 0.01 0.01 0.00 0.00 0.00 0.00 0.00 0.00 0.00 0.00 0.00 0.00 0.00 0.00 0.00 0.00 0.00 0.00 0.00 0.00 0.00 0.00 0.00 0.00 0.00 0.02 0.02 0.01 0.01 0.00 0.00 0.00 0.00
0.00 0.00 0.00 0.00 0.00 0.00 0.00 0.00 0.01 0.01 0.01 0.01 0.00 0.00 0.00 0.00 0.00 0.00 0.00 0.00 0.00 0.00 0.00 0.00 0.00 0.00 0.00 0.00 0.00 0.01 0.00 0.00 0.00 0.00 0.00 0.01 0.02 0.02 0.04 0.02 0.01 0.00 0.00
0.00 0.00 0.00 0.00 0.00 0.00 0.00 0.00 0.00 0.00 0.00 0.00 0.00 0.00 0.00 0.00 0.00 0.00 0.00 0.00 0.00 0.00 0.00 0.00 0.00 0.00 0.00 0.00 0.00 0.01 0.01 0.01 0.01 0.01 0.02 0.01 0.04 0.09 0.14 0.12 0.06 0.04 0.01
0.00 0.00 0.00 0.00 0.00 0.00 0.00 0.00 0.00 0.00 0.00 0.00 0.00 0.00 0.00 0.00 0.01 0.01 0.00 0.00 0.00 0.00 0.00 0.00 0.00 0.00 0.00 0.00 0.00 0.01 0.03 0.03 0.02 0.02 0.03 0.03 0.04 0.12 0.25 0.27 0.16 0.10 0.06
0.00 0.00 0.00 0.00 0.00 0.00 0.00 0.00 0.00 0.00 0.00 0.00 0.00 0.00 0.00 0.00 0.00 0.01 0.00 0.00 0.01 0.02 0.00 0.00 0.00 0.00 0.00 0.01 0.02 0.05 0.07 0.05 0.03 0.03 0.02 0.03 0.03 0.10 0.24 0.25 0.15 0.10 0.07
0.00 0.00 0.00 0.00 0.00 0.00 0.00 0.00 0.00 0.00 0.00 0.00 0.00 0.00 0.00 0.00 0.00 0.00 0.00 0.00 0.00 0.01 0.00 0.01 0.01 0.02 0.02 0.03 0.06 0.06 0.05 0.03 0.05 0.05 0.01 0.01 0.04 0.12 0.20 0.18 0.15 0.12 0.08
0.00 0.00 0.00 0.00 0.00 0.00 0.00 0.01 0.01 0.01 0.01 0.01 0.00 0.00 0.00 0.00 0.00 0.00 0.00 0.00 0.00 0.01 0.02 0.03 0.05 0.07 0.05 0.06 0.10 0.06 0.03 0.09 0.13 0.03 0.02 0.01 0.07 0.12 0.12 0.12 0.14 0.16 0.13
0.00 0.00 0.00 0.00 0.00 0.00 0.00 0.01 0.01 0.01 0.01 0.00 0.00 0.00 0.00 0.00 0.00 0.00 0.00 0.00 0.02 0.03 0.04 0.05 0.09 0.10 0.07 0.03 0.03 0.05 0.03 0.07 0.06 0.04 0.07 0.04 0.06 0.11 0.15 0.15 0.12 0.13 0.13
0.00 0.00 0.00 0.00 0.00 0.00 0.00 0.00 0.00 0.01 0.01 0.00 0.00 0.00 0.00 0.00 0.00 0.00 0.00 0.00 0.01 0.03 0.06 0.10 0.11 0.06 0.04 0.03 0.02 0.03 0.01 0.02 0.03 0.03 0.03 0.05 0.07 0.13 0.16 0.15 0.13 0.13 0.13
0.00 0.00 0.00 0.00 0.00 0.00 0.00 0.00 0.00 0.00 0.00 0.00 0.00 0.00 0.00 0.00 0.00 0.00 0.00 0.00 0.01 0.02 0.06 0.08 0.06 0.05 0.06 0.03 0.01 0.01 0.01 0.05 0.06 0.04 0.01 0.04 0.08 0.13 0.17 0.15 0.11 0.08 0.08
0.00 0.00 0.00 0.00 0.00 0.00 0.00 0.00 0.00 0.00 0.00 0.00 0.00 0.00 0.01 0.02 0.03 0.04 0.02 0.02 0.02 0.05 0.10 0.12 0.08 0.04 0.04 0.03 0.03 0.02 0.02 0.04 0.04 0.02 0.03 0.03 0.04 0.08 0.11 0.11 0.13 0.09 0.06
0.00 0.00 0.00 0.00 0.00 0.00 0.01 0.01 0.02 0.01 0.01 0.01 0.02 0.05 0.10 0.11 0.12 0.12 0.08 0.07 0.05 0.09 0.15 0.19 0.17 0.13 0.07 0.07 0.06 0.06 0.05 0.07 0.05 0.05 0.07 0.05 0.03 0.03 0.03 0.06 0.09 0.10 0.10
0.00 0.00 0.00 0.01 0.01 0.03 0.06 0.08 0.10 0.10 0.09 0.11 0.15 0.24 0.32 0.34 0.30 0.30 0.26 0.18 0.16 0.24 0.26 0.21 0.19 0.22 0.17 0.19 0.16 0.22 0.20 0.15 0.09 0.06 0.08 0.07 0.05 0.04 0.05 0.06 0.11 0.13 0.16
0.02 0.03 0.05 0.08 0.12 0.19 0.26 0.29 0.35 0.45 0.49 0.42 0.42 0.53 0.54 0.47 0.46 0.51 0.38 0.24 0.31 0.45 0.41 0.30 0.31 0.33 0.30 0.32 0.31 0.31 0.22 0.14 0.08 0.04 0.04 0.03 0.03 0.02 0.03 0.11 0.15 0.17 0.25
0.11 0.16 0.23 0.31 0.39 0.43 0.47 0.54 0.60 0.62 0.56 0.41 0.33 0.33 0.35 0.37 0.43 0.45 0.24 0.16 0.33 0.42 0.31 0.31 0.35 0.39 0.39 0.37 0.35 0.24 0.15 0.08 0.05 0.05 0.04 0.02 0.02 0.03 0.04 0.11 0.13 0.19 0.29
0.14 0.20 0.25 0.32 0.32 0.26 0.27 0.32 0.39 0.43 0.37 0.26 0.19 0.18 0.17 0.18 0.24 0.32 0.19 0.17 0.41 0.46 0.39 0.47 0.48 0.43 0.34 0.31 0.30 0.11 0.06 0.05 0.04 0.05 0.04 0.03 0.03 0.02 0.03 0.05 0.07 0.12 0.23
0.08 0.14 0.15 0.13 0.10 0.09 0.12 0.14 0.13 0.11 0.09 0.08 0.05 0.05 0.09 0.11 0.18 0.30 0.21 0.25 0.39 0.42 0.35 0.37 0.39 0.31 0.19 0.30 0.30 0.11 0.03 0.02 0.03 0.03 0.02 0.02 0.02 0.02 0.03 0.04 0.07 0.08 0.07
0.02 0.05 0.08 0.07 0.04 0.05 0.04 0.04 0.03 0.01 0.01 0.02 0.01 0.01 0.03 0.07 0.13 0.24 0.20 0.15 0.20 0.22 0.17 0.18 0.27 0.28 0.23 0.34 0.37 0.25 0.08 0.04 0.02 0.02 0.03 0.02 0.02 0.03 0.04 0.04 0.08 0.13 0.15
0.01 0.01 0.01 0.01 0.01 0.01 0.01 0.01 0.00 0.00 0.00 0.00 0.00 0.01 0.01 0.02 0.04 0.07 0.09 0.11 0.16 0.23 0.22 0.22 0.26 0.28 0.21 0.21 0.28 0.29 0.18 0.06 0.04 0.05 0.07 0.06 0.07 0.11 0.13 0.13 0.16 0.17 0.20
0.00 0.00 0.00 0.00 0.00 0.00 0.00 0.00 0.00 0.00 0.00 0.00 0.01 0.01 0.01 0.02 0.03 0.04 0.05 0.05 0.10 0.17 0.17 0.15 0.16 0.18 0.16 0.12 0.15 0.17 0.20 0.16 0.12 0.07 0.08 0.11 0.13 0.16 0.20 0.21 0.22 0.24 0.24
0.00 0.00 0.00 0.00 0.00 0.00 0.00 0.00 0.00 0.00 0.01 0.01 0.00 0.01 0.01 0.02 0.03 0.04 0.04 0.04 0.06 0.08 0.09 0.08 0.08 0.09 0.08 0.06 0.07 0.10 0.19 0.23 0.24 0.18 0.12 0.11 0.09 0.11 0.16 0.18 0.22 0.25 0.23
0.00 0.00 0.00 0.00 0.00 0.00 0.01 0.01 0.02 0.03 0.02 0.02 0.01 0.01 0.01 0.02 0.04 0.06 0.07 0.07 0.09 0.09 0.09 0.08 0.09 0.07 0.06 0.05 0.05 0.08 0.13 0.20 0.24 0.26 0.21 0.15 0.11 0.11 0.15 0.19 0.28 0.31 0.27

GEFSSE_prec_meanprecacc_018.txt.gz
Total_Precipitation_Accumulation
0.00 0.00 0.00 0.00 0.00 0.00 0.00 0.00 0.00 0.00 0.00 0.00 0.00 0.00 0.00 0.00 0.00 0.00 0.00 0.00 0.00 0.00 0.00 0.00 0.00 0.00 0.00 0.00 0.00 0.00 0.00 0.00 0.00 0.00 0.00 0.01 0.01 0.01 0.01 0.01 0.01 0.04 0.01
0.00 0.00 0.00 0.00 0.00 0.00 0.00 0.00 0.00 0.00 0.00 0.00 0.00 0.00 0.00 0.00 0.00 0.00 0.00 0.00 0.00 0.00 0.00 0.00 0.00 0.00 0.00 0.00 0.00 0.00 0.00 0.00 0.00 0.00 0.00 0.00 0.00 0.00 0.00 0.00 0.01 0.02 0.01
0.00 0.00 0.00 0.00 0.00 0.00 0.00 0.00 0.00 0.00 0.00 0.00 0.00 0.00 0.00 0.00 0.00 0.00 0.00 0.00 0.00 0.00 0.00 0.00 0.00 0.00 0.00 0.00 0.00 0.00 0.00 0.00 0.00 0.00 0.00 0.00 0.00 0.00 0.00 0.00 0.00 0.00 0.00
0.00 0.00 0.00 0.00 0.00 0.00 0.00 0.00 0.00 0.00 0.00 0.00 0.00 0.00 0.00 0.00 0.00 0.00 0.00 0.00 0.00 0.00 0.00 0.00 0.00 0.00 0.00 0.00 0.00 0.00 0.00 0.00 0.00 0.00 0.00 0.01 0.01 0.00 0.00 0.00 0.00 0.00 0.00
0.00 0.00 0.00 0.00 0.00 0.00 0.00 0.00 0.00 0.00 0.01 0.01 0.00 0.00 0.00 0.00 0.00 0.00 0.00 0.00 0.00 0.00 0.00 0.00 0.00 0.00 0.00 0.00 0.00 0.00 0.00 0.00 0.00 0.00 0.00 0.02 0.02 0.01 0.01 0.00 0.00 0.00 0.00
0.00 0.00 0.00 0.00 0.00 0.00 0.00 0.00 0.01 0.01 0.01 0.01 0.00 0.00 0.00 0.00 0.00 0.00 0.00 0.00 0.00 0.00 0.00 0.00 0.00 0.00 0.00 0.00 0.00 0.01 0.00 0.00 0.00 0.00 0.01 0.02 0.04 0.04 0.07 0.05 0.02 0.01 0.00
0.00 0.00 0.00 0.00 0.00 0.00 0.00 0.00 0.00 0.00 0.00 0.00 0.00 0.00 0.00 0.00 0.00 0.00 0.00 0.00 0.00 0.00 0.00 0.00 0.00 0.00 0.00 0.00 0.00 0.01 0.01 0.01 0.01 0.02 0.03 0.03 0.08 0.12 0.27 0.32 0.20 0.10 0.03
0.00 0.00 0.00 0.00 0.00 0.00 0.00 0.00 0.00 0.00 0.00 0.00 0.00 0.00 0.00 0.00 0.01 0.01 0.00 0.00 0.00 0.00 0.00 0.00 0.00 0.00 0.00 0.01 0.01 0.03 0.05 0.04 0.04 0.05 0.07 0.06 0.06 0.15 0.40 0.52 0.42 0.32 0.21
0.00 0.00 0.00 0.00 0.00 0.00 0.00 0.00 0.00 0.00 0.00 0.00 0.00 0.00 0.00 0.00 0.01 0.01 0.01 0.01 0.01 0.02 0.01 0.00 0.00 0.00 0.01 0.02 0.05 0.10 0.12 0.09 0.05 0.07 0.05 0.06 0.06 0.12 0.32 0.36 0.31 0.29 0.25
0.00 0.00 0.00 0.00 0.00 0.00 0.00 0.01 0.00 0.00 0.00 0.00 0.00 0.00 0.00 0.00 0.00 0.00 0.01 0.01 0.01 0.01 0.01 0.01 0.02 0.03 0.03 0.05 0.09 0.10 0.09 0.05 0.05 0.07 0.03 0.02 0.06 0.15 0.22 0.22 0.22 0.23 0.22
0.00 0.00 0.00 0.00 0.00 0.00 0.00 0.01 0.01 0.01 0.01 0.01 0.01 0.01 0.01 0.00 0.00 0.00 0.00 0.01 0.01 0.02 0.02 0.03 0.05 0.08 0.09 0.09 0.13 0.10 0.07 0.10 0.13 0.03 0.02 0.02 0.10 0.15 0.15 0.17 0.19 0.23 0.23
0.00 0.00 0.00 0.00 0.00 0.00 0.00 0.01 0.01 0.01 0.02 0.01 0.01 0.01 0.02 0.03 0.02 0.00 0.00 0.00 0.02 0.03 0.05 0.06 0.10 0.13 0.11 0.05 0.07 0.13 0.05 0.08 0.07 0.04 0.07 0.04 0.09 0.15 0.19 0.18 0.16 0.18 0.20
0.00 0.00 0.00 0.00 0.00 0.00 0.00 0.00 0.01 0.02 0.05 0.04 0.03 0.03 0.04 0.04 0.03 0.02 0.02 0.01 0.02 0.04 0.07 0.14 0.18 0.11 0.08 0.07 0.07 0.09 0.04 0.04 0.04 0.04 0.03 0.05 0.10 0.19 0.23 0.21 0.18 0.19 0.19
0.00 0.00 0.00 0.00 0.00 0.00 0.00 0.01 0.01 0.02 0.04 0.05 0.05 0.05 0.08 0.07 0.06 0.06 0.04 0.02 0.02 0.04 0.09 0.12 0.12 0.13 0.14 0.10 0.09 0.08 0.09 0.13 0.09 0.07 0.03 0.05 0.10 0.18 0.24 0.21 0.17 0.16 0.16
0.00 0.00 0.00 0.00 0.00 0.00 0.01 0.02 0.02 0.03 0.03 0.03 0.05 0.05 0.09 0.11 0.11 0.13 0.08 0.06 0.05 0.09 0.16 0.22 0.19 0.15 0.16 0.14 0.10 0.08 0.08 0.11 0.10 0.07 0.04 0.04 0.05 0.12 0.17 0.19 0.18 0.15 0.14
0.00 0.00 0.00 0.00 0.01 0.02 0.03 0.04 0.05 0.07 0.06 0.07 0.12 0.17 0.28 0.31 0.28 0.26 0.21 0.18 0.14 0.21 0.31 0.36 0.32 0.28 0.20 0.21 0.15 0.12 0.11 0.13 0.12 0.12 0.09 0.06 0.04 0.04 0.07 0.12 0.16 0.18 0.18
0.00 0.00 0.01 0.02 0.04 0.08 0.14 0.16 0.19 0.20 0.21 0.25 0.36 0.51 0.66 0.72 0.65 0.62 0.52 0.34 0.30 0.43 0.47 0.40 0.35 0.42 0.31 0.30 0.24 0.30 0.28 0.24 0.15 0.11 0.12 0.09 0.05 0.04 0.05 0.07 0.15 0.21 0.26
0.02 0.03 0.07 0.10 0.18 0.30 0.38 0.40 0.45 0.55 0.60 0.57 0.66 0.78 0.82 0.83 0.83 0.89 0.68 0.43 0.54 0.70 0.65 0.53 0.50 0.54 0.44 0.46 0.43 0.41 0.33 0.25 0.13 0.08 0.06 0.04 0.04 0.02 0.03 0.11 0.16 0.19 0.30
0.11 0.17 0.26 0.35 0.48 0.56 0.59 0.63 0.68 0.69 0.63 0.51 0.45 0.46 0.48 0.48 0.53 0.57 0.34 0.26 0.48 0.57 0.48 0.46 0.52 0.57 0.54 0.57 0.57 0.36 0.22 0.13 0.08 0.07 0.05 0.02 0.03 0.03 0.04 0.12 0.13 0.19 0.30
0.14 0.21 0.26 0.34 0.37 0.33 0.32 0.36 0.43 0.45 0.39 0.29 0.22 0.21 0.19 0.19 0.25 0.33 0.20 0.18 0.44 0.50 0.43 0.53 0.55 0.50 0.41 0.46 0.43 0.16 0.10 0.08 0.07 0.06 0.05 0.03 0.03 0.02 0.03 0.05 0.07 0.12 0.23
0.08 0.14 0.15 0.14 0.11 0.11 0.13 0.15 0.13 0.11 0.10 0.08 0.05 0.05 0.09 0.11 0.18 0.30 0.21 0.25 0.40 0.42 0.36 0.39 0.41 0.34 0.22 0.36 0.39 0.16 0.06 0.04 0.05 0.04 0.03 0.02 0.02 0.02 0.03 0.04 0.07 0.08 0.07
0.02 0.05 0.08 0.07 0.05 0.05 0.04 0.04 0.03 0.01 0.01 0.02 0.01 0.01 0.03 0.07 0.13 0.24 0.20 0.15 0.21 0.23 0.18 0.18 0.28 0.29 0.24 0.37 0.42 0.30 0.11 0.05 0.03 0.02 0.03 0.02 0.02 0.03 0.04 0.04 0.09 0.13 0.15
0.01 0.01 0.01 0.01 0.01 0.01 0.01 0.01 0.00 0.00 0.00 0.00 0.00 0.01 0.01 0.02 0.04 0.07 0.09 0.11 0.16 0.23 0.22 0.22 0.27 0.29 0.22 0.22 0.31 0.33 0.20 0.07 0.05 0.05 0.08 0.07 0.08 0.11 0.13 0.13 0.16 0.17 0.20
0.00 0.00 0.00 0.00 0.00 0.00 0.00 0.00 0.00 0.00 0.00 0.00 0.01 0.01 0.01 0.02 0.03 0.04 0.05 0.05 0.10 0.17 0.17 0.15 0.17 0.19 0.18 0.14 0.17 0.20 0.22 0.18 0.14 0.08 0.09 0.12 0.14 0.17 0.21 0.21 0.22 0.24 0.25
0.00 0.00 0.00 0.00 0.00 0.00 0.01 0.01 0.01 0.00 0.01 0.01 0.00 0.01 0.01 0.02 0.03 0.04 0.04 0.04 0.06 0.08 0.09 0.09 0.09 0.11 0.10 0.08 0.09 0.12 0.22 0.27 0.28 0.21 0.13 0.12 0.12 0.12 0.17 0.19 0.22 0.26 0.25
0.00 0.00 0.00 0.00 0.01 0.01 0.01 0.02 0.03 0.03 0.03 0.02 0.01 0.01 0.01 0.02 0.04 0.06 0.07 0.08 0.09 0.10 0.09 0.10 0.10 0.10 0.09 0.08 0.09 0.12 0.18 0.24 0.28 0.29 0.23 0.17 0.16 0.18 0.20 0.22 0.30 0.35 0.33

GEFSSE_prec_meanprecacc_024.txt.gz
Total_Precipitation_Accumulation
0.00 0.00 0.00 0.00 0.00 0.00 0.00 0.00 0.00 0.00 0.00 0.00 0.00 0.00 0.00 0.00 0.00 0.00 0.00 0.00 0.00 0.00 0.00 0.00 0.00 0.00 0.01 0.01 0.00 0.00 0.00 0.00 0.00 0.00 0.00 0.01 0.01 0.01 0.01 0.01 0.05 0.09 0.02
0.00 0.00 0.00 0.00 0.00 0.00 0.00 0.00 0.00 0.00 0.00 0.00 0.00 0.00 0.00 0.00 0.00 0.00 0.00 0.00 0.00 0.00 0.00 0.00 0.00 0.00 0.00 0.00 0.00 0.00 0.00 0.00 0.00 0.00 0.00 0.00 0.00 0.00 0.00 0.00 0.04 0.06 0.01
0.00 0.00 0.00 0.00 0.00 0.00 0.00 0.00 0.00 0.00 0.00 0.00 0.00 0.00 0.00 0.00 0.00 0.00 0.00 0.00 0.00 0.00 0.00 0.00 0.00 0.00 0.00 0.00 0.00 0.00 0.00 0.00 0.00 0.00 0.00 0.01 0.00 0.00 0.00 0.00 0.00 0.00 0.00
0.00 0.00 0.00 0.00 0.00 0.00 0.00 0.00 0.00 0.00 0.00 0.00 0.00 0.00 0.00 0.00 0.00 0.00 0.00 0.00 0.00 0.00 0.00 0.00 0.00 0.00 0.00 0.00 0.00 0.00 0.00 0.00 0.00 0.00 0.02 0.08 0.02 0.00 0.00 0.00 0.00 0.00 0.00
0.00 0.00 0.00 0.00 0.00 0.00 0.00 0.00 0.00 0.00 0.01 0.01 0.00 0.00 0.00 0.00 0.00 0.00 0.00 0.00 0.00 0.00 0.00 0.00 0.00 0.00 0.00 0.00 0.00 0.00 0.00 0.00 0.00 0.00 0.01 0.06 0.05 0.02 0.01 0.00 0.00 0.00 0.00
0.00 0.00 0.00 0.00 0.00 0.00 0.00 0.00 0.01 0.01 0.01 0.01 0.00 0.00 0.00 0.00 0.00 0.00 0.00 0.00 0.00 0.00 0.00 0.00 0.00 0.00 0.00 0.00 0.00 0.01 0.00 0.00 0.00 0.00 0.01 0.02 0.09 0.09 0.08 0.06 0.02 0.01 0.00
0.00 0.00 0.00 0.00 0.00 0.00 0.00 0.00 0.00 0.00 0.00 0.00 0.00 0.00 0.00 0.00 0.00 0.00 0.00 0.00 0.00 0.00 0.00 0.00 0.00 0.00 0.00 0.00 0.00 0.01 0.01 0.01 0.01 0.03 0.03 0.03 0.13 0.16 0.31 0.34 0.22 0.11 0.04
0.00 0.00 0.00 0.00 0.00 0.00 0.00 0.00 0.00 0.00 0.00 0.00 0.00 0.00 0.00 0.00 0.01 0.01 0.00 0.00 0.00 0.00 0.00 0.00 0.00 0.00 0.00 0.01 0.01 0.03 0.06 0.05 0.04 0.07 0.08 0.08 0.11 0.17 0.45 0.55 0.45 0.36 0.25
0.00 0.00 0.00 0.00 0.00 0.00 0.00 0.00 0.00 0.00 0.00 0.00 0.00 0.00 0.00 0.00 0.01 0.01 0.01 0.01 0.02 0.02 0.01 0.01 0.00 0.01 0.01 0.02 0.05 0.10 0.12 0.09 0.06 0.08 0.06 0.08 0.10 0.15 0.38 0.39 0.33 0.33 0.31
0.00 0.00 0.00 0.00 0.00 0.00 0.00 0.01 0.00 0.00 0.00 0.00 0.00 0.00 0.00 0.00 0.00 0.01 0.01 0.01 0.01 0.02 0.01 0.01 0.02 0.03 0.03 0.05 0.10 0.10 0.10 0.05 0.05 0.07 0.03 0.03 0.08 0.18 0.27 0.25 0.24 0.26 0.26
0.00 0.00 0.00 0.00 0.00 0.00 0.00 0.01 0.01 0.01 0.01 0.01 0.01 0.01 0.01 0.01 0.01 0.03 0.02 0.03 0.02 0.03 0.03 0.03 0.06 0.09 0.10 0.10 0.13 0.13 0.09 0.10 0.13 0.03 0.02 0.03 0.11 0.18 0.19 0.19 0.22 0.26 0.26
0.00 0.00 0.00 0.00 0.00 0.00 0.00 0.01 0.01 0.01 0.02 0.02 0.02 0.05 0.06 0.08 0.06 0.03 0.08 0.08 0.06 0.07 0.07 0.07 0.12 0.15 0.11 0.05 0.11 0.29 0.09 0.08 0.07 0.04 0.08 0.05 0.11 0.18 0.22 0.20 0.19 0.20 0.22
0.00 0.00 0.00 0.00 0.00 0.00 0.00 0.00 0.01 0.04 0.12 0.13 0.13 0.17 0.19 0.21 0.14 0.08 0.10 0.13 0.13 0.11 0.10 0.17 0.22 0.14 0.11 0.11 0.12 0.18 0.08 0.06 0.05 0.07 0.07 0.11 0.16 0.25 0.27 0.23 0.22 0.22 0.23
0.00 0.00 0.00 0.00 0.00 0.00 0.00 0.02 0.03 0.05 0.10 0.12 0.12 0.14 0.24 0.20 0.18 0.15 0.13 0.11 0.14 0.15 0.20 0.19 0.17 0.18 0.20 0.15 0.13 0.11 0.11 0.15 0.11 0.11 0.10 0.15 0.19 0.27 0.32 0.26 0.21 0.21 0.22
0.00 0.00 0.00 0.00 0.00 0.00 0.01 0.03 0.05 0.06 0.08 0.08 0.13 0.16 0.23 0.26 0.25 0.25 0.19 0.15 0.10 0.15 0.26 0.35 0.26 0.21 0.23 0.19 0.14 0.11 0.11 0.13 0.13 0.12 0.10 0.15 0.14 0.19 0.23 0.24 0.22 0.19 0.19
0.00 0.00 0.00 0.00 0.01 0.02 0.05 0.07 0.11 0.13 0.12 0.15 0.24 0.28 0.46 0.51 0.45 0.40 0.34 0.31 0.22 0.31 0.43 0.49 0.42 0.39 0.28 0.30 0.20 0.16 0.14 0.16 0.15 0.16 0.13 0.12 0.12 0.09 0.11 0.16 0.20 0.21 0.21
0.00 0.00 0.01 0.02 0.04 0.11 0.20 0.24 0.30 0.28 0.31 0.37 0.52 0.64 0.81 0.90 0.89 0.85 0.73 0.54 0.51 0.64 0.66 0.56 0.48 0.59 0.42 0.39 0.31 0.37 0.35 0.32 0.21 0.16 0.15 0.11 0.07 0.07 0.07 0.10 0.18 0.25 0.29
0.02 0.03 0.07 0.10 0.21 0.39 0.48 0.49 0.54 0.61 0.70 0.67 0.76 0.87 0.91 0.97 1.03 1.12 0.89 0.66 0.78 0.93 0.89 0.78 0.74 0.79 0.67 0.66 0.61 0.55 0.45 0.33 0.17 0.11 0.08 0.05 0.04 0.02 0.04 0.14 0.19 0.23 0.34
0.11 0.18 0.27 0.36 0.53 0.64 0.66 0.68 0.71 0.73 0.68 0.56 0.50 0.51 0.53 0.53 0.60 0.66 0.43 0.37 0.58 0.68 0.60 0.59 0.73 0.77 0.71 0.78 0.75 0.51 0.33 0.19 0.12 0.08 0.06 0.03 0.04 0.04 0.04 0.14 0.15 0.21 0.33
0.17 0.25 0.30 0.38 0.41 0.36 0.34 0.37 0.43 0.46 0.40 0.30 0.24 0.23 0.19 0.20 0.26 0.34 0.20 0.20 0.45 0.52 0.46 0.56 0.60 0.57 0.48 0.53 0.49 0.24 0.17 0.12 0.10 0.08 0.05 0.04 0.05 0.05 0.04 0.05 0.08 0.14 0.26
0.24 0.27 0.23 0.19 0.15 0.13 0.15 0.16 0.14 0.11 0.10 0.08 0.05 0.05 0.09 0.11 0.18 0.30 0.21 0.25 0.40 0.42 0.36 0.39 0.42 0.35 0.23 0.39 0.42 0.18 0.07 0.04 0.06 0.05 0.04 0.03 0.03 0.03 0.04 0.05 0.08 0.10 0.09
0.33 0.29 0.20 0.12 0.08 0.07 0.06 0.05 0.04 0.01 0.01 0.02 0.01 0.01 0.03 0.07 0.13 0.24 0.20 0.15 0.21 0.23 0.18 0.19 0.29 0.30 0.25 0.38 0.43 0.31 0.12 0.06 0.04 0.03 0.03 0.03 0.02 0.03 0.04 0.05 0.10 0.15 0.17
0.48 0.31 0.14 0.06 0.03 0.03 0.02 0.01 0.00 0.00 0.00 0.00 0.00 0.01 0.01 0.03 0.04 0.07 0.09 0.11 0.16 0.23 0.22 0.23 0.27 0.29 0.23 0.23 0.31 0.35 0.21 0.08 0.05 0.06 0.08 0.07 0.08 0.11 0.14 0.14 0.16 0.18 0.22
0.58 0.26 0.11 0.05 0.02 0.02 0.01 0.01 0.01 0.01 0.00 0.00 0.01 0.01 0.02 0.02 0.03 0.04 0.05 0.05 0.10 0.17 0.18 0.15 0.17 0.20 0.20 0.15 0.18 0.23 0.25 0.21 0.17 0.09 0.09 0.13 0.15 0.18 0.22 0.22 0.22 0.25 0.26
0.48 0.26 0.17 0.09 0.07 0.06 0.05 0.04 0.03 0.01 0.01 0.01 0.01 0.01 0.02 0.03 0.03 0.04 0.04 0.04 0.06 0.09 0.10 0.09 0.10 0.12 0.13 0.11 0.11 0.16 0.27 0.33 0.34 0.25 0.15 0.14 0.16 0.16 0.21 0.22 0.24 0.29 0.29
0.26 0.19 0.14 0.12 0.15 0.13 0.09 0.07 0.08 0.07 0.05 0.04 0.02 0.01 0.02 0.03 0.04 0.06 0.07 0.08 0.09 0.10 0.10 0.10 0.12 0.12 0.12 0.13 0.14 0.17 0.23 0.30 0.35 0.38 0.31 0.24 0.23 0.23 0.26 0.29 0.38 0.43 0.42

GEFSSE_prec_meanprecacc_030.txt.gz
Total_Precipitation_Accumulation
0.00 0.00 0.00 0.00 0.00 0.00 0.00 0.00 0.00 0.00 0.00 0.00 0.00 0.00 0.00 0.00 0.00 0.00 0.00 0.00 0.00 0.00 0.00 0.01 0.01 0.01 0.01 0.01 0.00 0.00 0.00 0.00 0.00 0.00 0.00 0.01 0.01 0.01 0.01 0.01 0.05 0.09 0.02
0.00 0.00 0.00 0.00 0.00 0.00 0.00 0.00 0.00 0.00 0.00 0.00 0.00 0.00 0.00 0.00 0.00 0.00 0.00 0.00 0.00 0.00 0.00 0.00 0.00 0.00 0.00 0.00 0.00 0.00 0.00 0.00 0.00 0.00 0.00 0.00 0.01 0.01 0.00 0.00 0.04 0.06 0.01
0.00 0.00 0.00 0.00 0.00 0.00 0.00 0.00 0.00 0.00 0.00 0.00 0.00 0.00 0.00 0.00 0.00 0.00 0.00 0.00 0.00 0.00 0.00 0.00 0.00 0.00 0.00 0.00 0.00 0.00 0.00 0.00 0.00 0.00 0.00 0.02 0.00 0.00 0.00 0.00 0.00 0.00 0.00
0.00 0.00 0.00 0.00 0.00 0.00 0.00 0.00 0.00 0.00 0.00 0.00 0.00 0.00 0.00 0.00 0.00 0.00 0.00 0.00 0.00 0.00 0.00 0.00 0.00 0.00 0.00 0.00 0.00 0.00 0.00 0.00 0.00 0.00 0.03 0.13 0.03 0.01 0.01 0.00 0.00 0.00 0.00
0.00 0.00 0.00 0.00 0.00 0.00 0.00 0.00 0.00 0.00 0.01 0.01 0.00 0.00 0.00 0.00 0.00 0.00 0.00 0.00 0.00 0.00 0.00 0.00 0.00 0.00 0.00 0.00 0.00 0.00 0.00 0.00 0.00 0.00 0.03 0.12 0.08 0.04 0.03 0.01 0.00 0.00 0.00
0.00 0.00 0.00 0.00 0.00 0.00 0.00 0.00 0.01 0.01 0.01 0.01 0.00 0.00 0.00 0.00 0.00 0.00 0.00 0.00 0.00 0.00 0.00 0.00 0.00 0.00 0.00 0.00 0.00 0.01 0.00 0.00 0.00 0.01 0.01 0.05 0.12 0.12 0.11 0.07 0.03 0.01 0.00
0.00 0.00 0.00 0.00 0.00 0.00 0.00 0.00 0.00 0.00 0.00 0.00 0.00 0.00 0.00 0.00 0.00 0.00 0.00 0.00 0.00 0.00 0.00 0.00 0.00 0.00 0.00 0.00 0.00 0.01 0.01 0.01 0.01 0.03 0.04 0.07 0.15 0.20 0.35 0.37 0.23 0.11 0.04
0.00 0.00 0.00 0.00 0.00 0.00 0.00 0.00 0.00 0.00 0.00 0.00 0.00 0.00 0.00 0.00 0.01 0.01 0.00 0.00 0.00 0.00 0.00 0.00 0.00 0.00 0.00 0.01 0.01 0.03 0.06 0.05 0.04 0.07 0.09 0.10 0.15 0.22 0.51 0.59 0.47 0.36 0.25
0.00 0.00 0.00 0.00 0.00 0.00 0.00 0.00 0.00 0.00 0.00 0.00 0.00 0.00 0.00 0.00 0.01 0.01 0.01 0.01 0.02 0.02 0.01 0.01 0.00 0.01 0.01 0.02 0.05 0.10 0.12 0.09 0.06 0.08 0.06 0.09 0.14 0.21 0.47 0.45 0.36 0.35 0.32
0.00 0.00 0.00 0.00 0.00 0.00 0.00 0.01 0.00 0.00 0.00 0.00 0.00 0.00 0.00 0.00 0.00 0.01 0.01 0.01 0.01 0.02 0.01 0.01 0.02 0.03 0.03 0.05 0.10 0.10 0.10 0.05 0.05 0.07 0.03 0.04 0.11 0.27 0.39 0.34 0.30 0.31 0.29
0.00 0.00 0.00 0.00 0.00 0.00 0.00 0.01 0.01 0.01 0.01 0.01 0.01 0.01 0.01 0.01 0.01 0.03 0.02 0.04 0.04 0.06 0.06 0.05 0.07 0.09 0.10 0.10 0.14 0.14 0.10 0.10 0.13 0.03 0.02 0.03 0.13 0.28 0.33 0.30 0.30 0.31 0.29
0.00 0.00 0.00 0.00 0.00 0.00 0.00 0.01 0.01 0.01 0.02 0.02 0.02 0.05 0.06 0.08 0.06 0.04 0.09 0.12 0.14 0.19 0.17 0.14 0.19 0.19 0.13 0.06 0.12 0.32 0.11 0.10 0.10 0.06 0.09 0.07 0.16 0.29 0.35 0.31 0.26 0.25 0.25
0.00 0.00 0.00 0.00 0.00 0.00 0.00 0.00 0.01 0.04 0.12 0.13 0.13 0.17 0.20 0.22 0.15 0.09 0.13 0.20 0.23 0.25 0.22 0.29 0.36 0.23 0.17 0.16 0.16 0.23 0.15 0.13 0.12 0.14 0.14 0.17 0.26 0.40 0.45 0.35 0.29 0.27 0.26
0.00 0.00 0.01 0.01 0.01 0.00 0.00 0.02 0.03 0.05 0.10 0.13 0.12 0.15 0.26 0.22 0.21 0.20 0.19 0.17 0.21 0.23 0.32 0.33 0.32 0.36 0.36 0.29 0.26 0.25 0.28 0.31 0.25 0.25 0.25 0.27 0.38 0.49 0.51 0.38 0.28 0.26 0.25
0.02 0.03 0.04 0.04 0.02 0.02 0.02 0.04 0.05 0.07 0.09 0.10 0.16 0.20 0.27 0.30 0.32 0.36 0.30 0.26 0.20 0.30 0.46 0.57 0.48 0.46 0.50 0.42 0.34 0.31 0.32 0.33 0.30 0.29 0.28 0.32 0.28 0.35 0.42 0.39 0.32 0.26 0.23
0.08 0.11 0.12 0.11 0.11 0.10 0.08 0.09 0.13 0.15 0.15 0.19 0.28 0.31 0.50 0.57 0.54 0.51 0.45 0.43 0.34 0.46 0.61 0.66 0.60 0.58 0.49 0.49 0.37 0.33 0.30 0.31 0.30 0.33 0.34 0.31 0.30 0.26 0.27 0.31 0.32 0.30 0.28
0.19 0.23 0.27 0.29 0.30 0.32 0.32 0.29 0.33 0.31 0.35 0.42 0.56 0.68 0.86 0.98 0.97 0.94 0.80 0.61 0.61 0.75 0.77 0.67 0.60 0.71 0.54 0.49 0.40 0.46 0.43 0.40 0.31 0.26 0.27 0.26 0.23 0.23 0.21 0.22 0.30 0.35 0.39
0.45 0.57 0.66 0.71 0.80 0.86 0.75 0.64 0.63 0.71 0.79 0.75 0.82 0.94 0.98 1.03 1.09 1.17 0.92 0.70 0.83 0.97 0.92 0.82 0.79 0.85 0.72 0.70 0.63 0.57 0.47 0.37 0.22 0.17 0.15 0.13 0.15 0.13 0.15 0.24 0.29 0.33 0.47
0.95 1.15 1.32 1.50 1.54 1.35 1.12 1.00 0.94 0.89 0.81 0.66 0.57 0.57 0.58 0.56 0.62 0.67 0.44 0.38 0.59 0.69 0.61 0.60 0.74 0.78 0.72 0.79 0.76 0.51 0.34 0.21 0.14 0.10 0.08 0.06 0.08 0.10 0.11 0.21 0.24 0.32 0.50
1.39 1.90 2.31 2.31 1.89 1.45 1.07 0.81 0.72 0.65 0.53 0.40 0.32 0.27 0.22 0.21 0.26 0.34 0.20 0.20 0.46 0.52 0.46 0.56 0.60 0.57 0.48 0.54 0.49 0.24 0.17 0.13 0.10 0.08 0.06 0.05 0.07 0.08 0.10 0.12 0.15 0.21 0.41
2.06 2.75 2.98 2.60 2.09 1.45 1.01 0.71 0.45 0.30 0.22 0.17 0.11 0.09 0.10 0.12 0.18 0.30 0.22 0.25 0.40 0.42 0.36 0.39 0.42 0.35 0.23 0.40 0.42 0.19 0.07 0.04 0.06 0.05 0.04 0.03 0.04 0.06 0.09 0.13 0.16 0.20 0.20
2.11 2.60 2.61 2.18 1.64 1.04 0.66 0.45 0.29 0.17 0.10 0.07 0.05 0.04 0.04 0.07 0.13 0.24 0.20 0.15 0.21 0.23 0.18 0.19 0.29 0.30 0.25 0.39 0.44 0.31 0.12 0.06 0.04 0.03 0.03 0.03 0.04 0.08 0.11 0.13 0.21 0.28 0.30
2.00 1.91 1.76 1.32 0.80 0.53 0.35 0.26 0.18 0.14 0.12 0.08 0.05 0.04 0.02 0.03 0.04 0.07 0.09 0.11 0.16 0.23 0.22 0.23 0.27 0.29 0.23 0.23 0.32 0.36 0.22 0.08 0.05 0.06 0.08 0.08 0.10 0.16 0.21 0.24 0.28 0.30 0.37
1.50 1.16 0.87 0.67 0.42 0.28 0.24 0.23 0.19 0.13 0.11 0.08 0.06 0.04 0.03 0.03 0.03 0.04 0.05 0.05 0.10 0.17 0.18 0.15 0.17 0.20 0.20 0.15 0.18 0.24 0.25 0.22 0.18 0.09 0.09 0.13 0.17 0.24 0.32 0.39 0.45 0.41 0.41
0.83 0.67 0.53 0.44 0.33 0.32 0.32 0.31 0.31 0.19 0.12 0.08 0.07 0.06 0.05 0.05 0.05 0.05 0.05 0.04 0.06 0.09 0.10 0.09 0.10 0.12 0.13 0.11 0.11 0.16 0.27 0.33 0.35 0.26 0.15 0.14 0.17 0.19 0.29 0.39 0.50 0.53 0.47
0.34 0.35 0.36 0.39 0.43 0.39 0.32 0.28 0.27 0.21 0.16 0.13 0.09 0.08 0.08 0.07 0.07 0.08 0.09 0.08 0.10 0.10 0.10 0.10 0.12 0.12 0.13 0.13 0.14 0.17 0.23 0.31 0.36 0.39 0.32 0.24 0.23 0.24 0.29 0.40 0.63 0.75 0.67

GEFSSE_prec_meanprecacc_036.txt.gz
Total_Precipitation_Accumulation
0.00 0.00 0.00 0.00 0.00 0.00 0.00 0.00 0.00 0.00 0.00 0.00 0.00 0.00 0.00 0.00 0.00 0.00 0.00 0.00 0.00 0.01 0.01 0.01 0.01 0.01 0.01 0.01 0.00 0.00 0.00 0.00 0.01 0.01 0.01 0.02 0.03 0.03 0.02 0.02 0.06 0.10 0.03
0.00 0.00 0.00 0.00 0.00 0.00 0.00 0.00 0.00 0.00 0.00 0.00 0.00 0.00 0.00 0.00 0.00 0.00 0.00 0.00 0.00 0.00 0.00 0.00 0.00 0.00 0.00 0.00 0.00 0.00 0.00 0.00 0.01 0.00 0.01 0.02 0.04 0.06 0.03 0.00 0.04 0.06 0.01
0.00 0.00 0.00 0.00 0.00 0.00 0.00 0.00 0.00 0.00 0.00 0.00 0.00 0.00 0.00 0.00 0.00 0.00 0.00 0.00 0.00 0.00 0.00 0.00 0.00 0.00 0.00 0.00 0.00 0.00 0.00 0.00 0.00 0.00 0.01 0.02 0.01 0.03 0.03 0.00 0.00 0.01 0.01
0.00 0.00 0.00 0.00 0.00 0.00 0.00 0.00 0.00 0.00 0.00 0.00 0.00 0.00 0.00 0.00 0.00 0.00 0.00 0.00 0.00 0.00 0.00 0.00 0.00 0.00 0.00 0.00 0.00 0.00 0.00 0.00 0.00 0.00 0.03 0.13 0.03 0.02 0.02 0.00 0.00 0.00 0.00
0.00 0.00 0.00 0.00 0.00 0.00 0.00 0.00 0.00 0.00 0.01 0.01 0.00 0.00 0.00 0.00 0.00 0.00 0.00 0.00 0.00 0.00 0.00 0.00 0.00 0.00 0.00 0.00 0.00 0.00 0.00 0.00 0.00 0.00 0.03 0.12 0.08 0.04 0.03 0.01 0.00 0.00 0.00
0.00 0.00 0.00 0.00 0.00 0.00 0.00 0.00 0.01 0.01 0.01 0.01 0.00 0.00 0.00 0.00 0.00 0.01 0.00 0.00 0.00 0.00 0.00 0.00 0.00 0.00 0.00 0.00 0.00 0.01 0.00 0.00 0.00 0.01 0.02 0.06 0.13 0.12 0.12 0.09 0.03 0.01 0.00
0.00 0.00 0.00 0.00 0.00 0.00 0.00 0.00 0.00 0.00 0.01 0.00 0.00 0.00 0.00 0.00 0.01 0.00 0.00 0.00 0.00 0.00 0.00 0.00 0.00 0.00 0.00 0.00 0.00 0.01 0.01 0.01 0.01 0.03 0.04 0.07 0.17 0.21 0.38 0.41 0.25 0.12 0.04
0.00 0.00 0.00 0.00 0.00 0.00 0.00 0.00 0.00 0.00 0.00 0.00 0.00 0.00 0.00 0.00 0.01 0.01 0.00 0.01 0.00 0.00 0.00 0.00 0.00 0.00 0.00 0.01 0.01 0.03 0.06 0.05 0.04 0.07 0.09 0.11 0.16 0.23 0.55 0.66 0.53 0.40 0.26
0.00 0.00 0.00 0.01 0.01 0.01 0.01 0.01 0.01 0.01 0.01 0.00 0.00 0.00 0.00 0.00 0.01 0.01 0.01 0.01 0.02 0.02 0.01 0.01 0.00 0.01 0.01 0.02 0.05 0.10 0.12 0.09 0.06 0.08 0.06 0.09 0.14 0.22 0.54 0.56 0.46 0.43 0.35
0.00 0.00 0.01 0.01 0.01 0.01 0.01 0.01 0.01 0.01 0.01 0.01 0.01 0.01 0.01 0.01 0.00 0.01 0.01 0.01 0.01 0.02 0.02 0.02 0.02 0.03 0.03 0.05 0.10 0.11 0.10 0.05 0.06 0.07 0.03 0.04 0.12 0.30 0.51 0.52 0.46 0.44 0.38
0.00 0.00 0.00 0.01 0.01 0.01 0.01 0.01 0.02 0.02 0.02 0.02 0.02 0.01 0.01 0.01 0.01 0.03 0.03 0.04 0.04 0.06 0.07 0.07 0.09 0.12 0.12 0.11 0.14 0.15 0.11 0.11 0.14 0.04 0.03 0.04 0.15 0.33 0.46 0.52 0.51 0.47 0.43
0.00 0.00 0.01 0.01 0.01 0.01 0.01 0.02 0.02 0.03 0.03 0.03 0.03 0.05 0.06 0.08 0.06 0.04 0.09 0.13 0.16 0.24 0.25 0.25 0.31 0.28 0.19 0.09 0.16 0.37 0.14 0.13 0.12 0.08 0.12 0.10 0.19 0.33 0.45 0.48 0.45 0.42 0.39
0.01 0.01 0.01 0.01 0.01 0.02 0.02 0.01 0.03 0.06 0.13 0.14 0.14 0.18 0.21 0.23 0.16 0.10 0.14 0.21 0.28 0.38 0.36 0.47 0.57 0.37 0.29 0.26 0.24 0.29 0.20 0.19 0.16 0.18 0.19 0.23 0.33 0.46 0.52 0.47 0.44 0.44 0.41
0.04 0.05 0.06 0.05 0.03 0.03 0.03 0.03 0.04 0.06 0.11 0.14 0.13 0.17 0.28 0.25 0.24 0.23 0.22 0.22 0.28 0.36 0.52 0.55 0.55 0.56 0.57 0.46 0.38 0.34 0.36 0.38 0.32 0.32 0.32 0.35 0.48 0.58 0.63 0.51 0.42 0.41 0.40
0.10 0.17 0.20 0.18 0.14 0.10 0.08 0.08 0.08 0.09 0.11 0.12 0.19 0.24 0.31 0.35 0.41 0.48 0.41 0.37 0.33 0.46 0.66 0.80 0.70 0.69 0.75 0.65 0.53 0.47 0.46 0.44 0.40 0.36 0.34 0.40 0.41 0.46 0.54 0.53 0.47 0.41 0.38
0.19 0.30 0.35 0.38 0.39 0.37 0.33 0.25 0.23 0.22 0.23 0.28 0.38 0.46 0.64 0.70 0.71 0.71 0.62 0.57 0.45 0.55 0.72 0.80 0.74 0.78 0.72 0.70 0.56 0.51 0.45 0.42 0.38 0.39 0.39 0.36 0.37 0.34 0.37 0.43 0.46 0.45 0.44
0.36 0.48 0.59 0.66 0.78 0.89 0.87 0.73 0.62 0.52 0.54 0.63 0.79 0.94 1.12 1.19 1.17 1.14 0.97 0.74 0.69 0.83 0.85 0.78 0.72 0.85 0.68 0.62 0.52 0.59 0.55 0.49 0.38 0.32 0.31 0.29 0.26 0.27 0.27 0.30 0.39 0.47 0.55
0.68 0.85 1.01 1.17 1.39 1.53 1.41 1.22 1.16 1.13 1.17 1.11 1.16 1.27 1.29 1.29 1.28 1.36 1.06 0.80 0.90 1.04 0.98 0.88 0.85 0.92 0.79 0.76 0.68 0.63 0.51 0.40 0.26 0.19 0.17 0.14 0.17 0.14 0.18 0.29 0.35 0.41 0.61
1.22 1.44 1.66 1.97 2.13 2.01 1.82 1.66 1.59 1.51 1.38 1.19 1.00 0.94 0.89 0.83 0.82 0.83 0.53 0.45 0.64 0.73 0.64 0.62 0.76 0.80 0.74 0.80 0.78 0.53 0.36 0.23 0.15 0.11 0.09 0.07 0.09 0.11 0.12 0.22 0.27 0.37 0.62
1.63 2.15 2.58 2.64 2.34 2.05 1.79 1.58 1.48 1.32 1.18 1.01 0.77 0.64 0.54 0.45 0.43 0.45 0.26 0.24 0.48 0.54 0.47 0.57 0.61 0.58 0.48 0.54 0.50 0.25 0.18 0.13 0.10 0.09 0.07 0.06 0.08 0.09 0.11 0.14 0.17 0.23 0.46
2.23 2.91 3.13 2.73 2.32 1.92 1.64 1.38 1.13 0.92 0.83 0.72 0.53 0.43 0.39 0.35 0.34 0.40 0.27 0.28 0.42 0.43 0.37 0.40 0.43 0.35 0.24 0.40 0.42 0.19 0.07 0.04 0.06 0.05 0.04 0.03 0.04 0.06 0.09 0.14 0.17 0.22 0.21
2.19 2.66 2.65 2.21 1.77 1.30 1.01 0.91 0.79 0.65 0.55 0.42 0.33 0.30 0.25 0.25 0.27 0.32 0.25 0.18 0.23 0.24 0.18 0.19 0.29 0.30 0.25 0.39 0.44 0.31 0.12 0.06 0.04 0.03 0.03 0.03 0.04 0.08 0.11 0.14 0.21 0.29 0.31
2.03 1.92 1.77 1.34 0.86 0.64 0.48 0.46 0.41 0.37 0.36 0.27 0.20 0.18 0.16 0.16 0.15 0.15 0.14 0.13 0.18 0.25 0.23 0.23 0.27 0.29 0.23 0.23 0.32 0.36 0.22 0.08 0.05 0.06 0.08 0.08 0.10 0.16 0.21 0.24 0.28 0.30 0.37
1.51 1.17 0.88 0.68 0.44 0.31 0.29 0.31 0.32 0.28 0.28 0.23 0.19 0.18 0.16 0.14 0.13 0.13 0.11 0.09 0.12 0.18 0.18 0.15 0.17 0.20 0.20 0.15 0.18 0.24 0.25 0.22 0.18 0.09 0.09 0.13 0.17 0.24 0.32 0.39 0.45 0.42 0.42
0.83 0.67 0.53 0.45 0.34 0.34 0.34 0.37 0.38 0.28 0.22 0.20 0.19 0.17 0.17 0.19 0.18 0.17 0.15 0.12 0.10 0.11 0.10 0.10 0.10 0.12 0.13 0.11 0.11 0.16 0.27 0.33 0.35 0.26 0.15 0.14 0.17 0.19 0.29 0.39 0.50 0.53 0.48
0.34 0.35 0.36 0.40 0.44 0.41 0.34 0.31 0.31 0.26 0.22 0.20 0.17 0.17 0.18 0.20 0.22 0.23 0.22 0.20 0.19 0.16 0.13 0.12 0.12 0.12 0.13 0.13 0.14 0.17 0.23 0.31 0.36 0.39 0.32 0.24 0.23 0.24 0.29 0.40 0.63 0.75 0.67

GEFSSE_prec_meanprecacc_042.txt.gz
Total_Precipitation_Accumulation
0.00 0.00 0.01 0.00 0.00 0.00 0.00 0.00 0.00 0.00 0.00 0.00 0.00 0.00 0.00 0.00 0.00 0.00 0.00 0.00 0.00 0.01 0.01 0.01 0.01 0.01 0.01 0.01 0.01 0.01 0.00 0.00 0.01 0.01 0.01 0.03 0.04 0.05 0.04 0.03 0.08 0.12 0.04
0.00 0.00 0.01 0.00 0.00 0.00 0.00 0.00 0.00 0.00 0.00 0.00 0.00 0.00 0.00 0.00 0.00 0.00 0.00 0.00 0.00 0.01 0.01 0.01 0.00 0.00 0.00 0.00 0.00 0.00 0.00 0.00 0.01 0.01 0.01 0.03 0.06 0.07 0.03 0.01 0.06 0.09 0.03
0.00 0.00 0.00 0.00 0.00 0.00 0.00 0.00 0.00 0.00 0.00 0.00 0.00 0.00 0.00 0.00 0.00 0.00 0.00 0.01 0.01 0.01 0.01 0.01 0.00 0.00 0.00 0.00 0.00 0.00 0.00 0.00 0.01 0.01 0.02 0.03 0.02 0.04 0.04 0.01 0.01 0.02 0.02
0.00 0.00 0.00 0.00 0.00 0.00 0.00 0.00 0.00 0.00 0.00 0.01 0.00 0.00 0.00 0.00 0.00 0.00 0.01 0.01 0.01 0.01 0.01 0.00 0.00 0.00 0.00 0.00 0.00 0.00 0.00 0.00 0.01 0.01 0.04 0.14 0.04 0.02 0.02 0.01 0.02 0.01 0.01
0.00 0.00 0.00 0.00 0.00 0.00 0.00 0.00 0.00 0.01 0.01 0.01 0.00 0.00 0.00 0.00 0.01 0.01 0.01 0.01 0.01 0.01 0.01 0.00 0.00 0.00 0.00 0.00 0.00 0.00 0.00 0.00 0.01 0.01 0.03 0.13 0.12 0.06 0.04 0.01 0.01 0.01 0.01
0.00 0.00 0.00 0.00 0.00 0.00 0.00 0.00 0.01 0.01 0.01 0.01 0.01 0.00 0.00 0.01 0.01 0.01 0.01 0.01 0.01 0.01 0.00 0.00 0.00 0.00 0.00 0.00 0.00 0.01 0.01 0.00 0.01 0.01 0.02 0.07 0.15 0.14 0.13 0.09 0.03 0.01 0.00
0.00 0.00 0.00 0.01 0.00 0.00 0.00 0.00 0.00 0.00 0.01 0.01 0.00 0.00 0.01 0.01 0.01 0.01 0.01 0.01 0.01 0.01 0.00 0.00 0.00 0.00 0.00 0.00 0.00 0.01 0.01 0.01 0.02 0.05 0.05 0.08 0.18 0.22 0.40 0.43 0.26 0.13 0.04
0.00 0.00 0.00 0.01 0.01 0.01 0.01 0.00 0.00 0.01 0.00 0.00 0.00 0.00 0.00 0.01 0.01 0.01 0.01 0.01 0.01 0.01 0.00 0.00 0.00 0.00 0.00 0.01 0.01 0.03 0.06 0.05 0.04 0.08 0.11 0.14 0.19 0.24 0.60 0.73 0.57 0.41 0.27
0.00 0.00 0.01 0.01 0.01 0.01 0.01 0.01 0.01 0.01 0.01 0.01 0.00 0.00 0.00 0.01 0.01 0.01 0.01 0.02 0.02 0.03 0.01 0.01 0.00 0.01 0.01 0.02 0.05 0.10 0.12 0.09 0.06 0.09 0.07 0.12 0.15 0.25 0.65 0.73 0.57 0.48 0.37
0.00 0.00 0.01 0.01 0.01 0.02 0.02 0.02 0.01 0.01 0.02 0.01 0.01 0.01 0.01 0.01 0.01 0.01 0.01 0.01 0.02 0.02 0.02 0.02 0.02 0.04 0.04 0.06 0.10 0.11 0.10 0.05 0.06 0.07 0.04 0.05 0.12 0.34 0.65 0.73 0.69 0.60 0.47
0.00 0.01 0.01 0.02 0.02 0.02 0.02 0.02 0.03 0.04 0.03 0.03 0.02 0.02 0.02 0.01 0.01 0.03 0.03 0.04 0.04 0.07 0.08 0.08 0.10 0.13 0.13 0.12 0.15 0.16 0.12 0.12 0.15 0.05 0.04 0.04 0.16 0.37 0.56 0.70 0.74 0.70 0.60
0.01 0.01 0.01 0.02 0.02 0.03 0.03 0.03 0.05 0.06 0.06 0.05 0.05 0.07 0.08 0.09 0.07 0.04 0.10 0.13 0.16 0.25 0.27 0.27 0.35 0.34 0.25 0.15 0.22 0.42 0.18 0.15 0.15 0.09 0.13 0.12 0.20 0.35 0.52 0.60 0.60 0.61 0.59
0.01 0.01 0.02 0.02 0.02 0.03 0.04 0.03 0.05 0.09 0.17 0.18 0.17 0.21 0.24 0.26 0.18 0.11 0.15 0.21 0.29 0.40 0.39 0.53 0.69 0.49 0.41 0.38 0.36 0.40 0.26 0.23 0.20 0.20 0.21 0.26 0.36 0.49 0.57 0.53 0.54 0.59 0.60
0.05 0.06 0.06 0.06 0.05 0.05 0.04 0.05 0.06 0.10 0.16 0.18 0.18 0.22 0.34 0.29 0.28 0.26 0.24 0.23 0.30 0.40 0.57 0.66 0.71 0.74 0.75 0.62 0.52 0.46 0.44 0.43 0.36 0.36 0.37 0.41 0.55 0.64 0.69 0.59 0.52 0.54 0.57
0.13 0.20 0.22 0.19 0.15 0.11 0.10 0.10 0.10 0.12 0.14 0.15 0.24 0.30 0.38 0.42 0.46 0.53 0.46 0.43 0.38 0.53 0.73 0.91 0.86 0.90 0.99 0.88 0.71 0.61 0.56 0.52 0.47 0.42 0.39 0.45 0.48 0.53 0.62 0.63 0.58 0.54 0.52
0.22 0.35 0.41 0.42 0.41 0.39 0.35 0.28 0.25 0.24 0.24 0.30 0.43 0.52 0.75 0.82 0.82 0.82 0.74 0.68 0.54 0.65 0.85 0.97 0.94 1.00 0.95 0.95 0.73 0.64 0.56 0.55 0.49 0.45 0.44 0.41 0.42 0.41 0.43 0.51 0.55 0.59 0.58
0.41 0.54 0.66 0.73 0.83 0.94 0.90 0.76 0.65 0.53 0.56 0.67 0.85 1.04 1.25 1.35 1.34 1.32 1.13 0.87 0.80 0.99 1.07 1.00 0.93 1.09 0.89 0.81 0.69 0.74 0.68 0.61 0.49 0.41 0.38 0.34 0.30 0.31 0.31 0.35 0.46 0.55 0.65
0.72 0.90 1.07 1.23 1.44 1.57 1.44 1.24 1.19 1.15 1.21 1.18 1.25 1.41 1.46 1.50 1.51 1.59 1.26 0.95 1.08 1.24 1.17 1.06 1.05 1.13 1.00 0.99 0.90 0.82 0.67 0.55 0.36 0.28 0.24 0.20 0.22 0.18 0.21 0.33 0.40 0.47 0.69
1.27 1.49 1.72 2.02 2.17 2.04 1.84 1.68 1.62 1.56 1.45 1.28 1.13 1.12 1.09 1.07 1.10 1.11 0.77 0.65 0.85 0.92 0.79 0.76 0.92 0.96 0.92 1.00 0.95 0.71 0.52 0.36 0.25 0.18 0.15 0.10 0.13 0.14 0.15 0.26 0.30 0.40 0.66
1.69 2.19 2.62 2.68 2.36 2.06 1.80 1.60 1.51 1.37 1.26 1.13 0.95 0.86 0.76 0.73 0.75 0.75 0.52 0.46 0.68 0.70 0.59 0.68 0.73 0.70 0.60 0.65 0.58 0.34 0.28 0.21 0.18 0.14 0.10 0.08 0.10 0.10 0.12 0.17 0.21 0.25 0.48
2.28 2.95 3.16 2.76 2.33 1.93 1.64 1.39 1.15 0.95 0.89 0.84 0.70 0.66 0.66 0.67 0.68 0.73 0.54 0.50 0.59 0.57 0.48 0.48 0.51 0.43 0.30 0.46 0.49 0.25 0.12 0.08 0.09 0.08 0.06 0.05 0.05 0.06 0.10 0.15 0.21 0.25 0.24
2.23 2.68 2.67 2.22 1.77 1.30 1.01 0.92 0.81 0.69 0.60 0.50 0.47 0.50 0.47 0.53 0.59 0.64 0.52 0.39 0.40 0.38 0.29 0.27 0.35 0.35 0.29 0.42 0.46 0.34 0.14 0.08 0.05 0.04 0.04 0.04 0.04 0.08 0.11 0.14 0.22 0.31 0.33
2.04 1.94 1.78 1.35 0.87 0.64 0.49 0.47 0.42 0.40 0.40 0.32 0.28 0.31 0.31 0.34 0.37 0.41 0.38 0.33 0.34 0.38 0.33 0.31 0.34 0.36 0.28 0.26 0.34 0.37 0.23 0.09 0.06 0.06 0.09 0.08 0.10 0.16 0.21 0.24 0.28 0.30 0.38
1.51 1.17 0.88 0.68 0.44 0.31 0.29 0.32 0.32 0.29 0.30 0.25 0.23 0.24 0.23 0.24 0.26 0.28 0.27 0.24 0.25 0.29 0.30 0.24 0.24 0.26 0.25 0.18 0.20 0.25 0.26 0.22 0.18 0.10 0.10 0.13 0.17 0.24 0.32 0.39 0.45 0.42 0.42
0.83 0.67 0.53 0.45 0.34 0.34 0.34 0.37 0.38 0.28 0.23 0.21 0.20 0.20 0.20 0.23 0.26 0.26 0.25 0.23 0.22 0.22 0.22 0.19 0.18 0.18 0.17 0.14 0.13 0.18 0.28 0.34 0.35 0.27 0.15 0.15 0.17 0.19 0.29 0.39 0.50 0.53 0.48
0.34 0.35 0.36 0.40 0.44 0.41 0.34 0.31 0.31 0.27 0.22 0.20 0.17 0.18 0.19 0.22 0.26 0.28 0.30 0.29 0.30 0.27 0.25 0.23 0.21 0.18 0.17 0.16 0.17 0.19 0.25 0.32 0.36 0.39 0.32 0.24 0.23 0.24 0.29 0.41 0.64 0.75 0.68

GEFSSE_prec_meanprecacc_048.txt.gz
Total_Precipitation_Accumulation
0.00 0.00 0.01 0.00 0.00 0.00 0.00 0.00 0.00 0.00 0.00 0.00 0.00 0.00 0.00 0.00 0.00 0.00 0.00 0.00 0.00 0.01 0.01 0.01 0.01 0.01 0.01 0.01 0.01 0.01 0.00 0.00 0.01 0.01 0.01 0.03 0.05 0.05 0.04 0.04 0.15 0.19 0.08
0.00 0.00 0.01 0.00 0.00 0.00 0.00 0.00 0.00 0.00 0.00 0.00 0.00 0.00 0.00 0.00 0.00 0.00 0.00 0.00 0.01 0.01 0.01 0.01 0.01 0.00 0.00 0.00 0.00 0.00 0.00 0.00 0.01 0.01 0.01 0.03 0.06 0.07 0.04 0.04 0.15 0.14 0.04
0.00 0.00 0.00 0.00 0.00 0.00 0.00 0.00 0.00 0.00 0.00 0.00 0.00 0.00 0.00 0.00 0.00 0.00 0.00 0.01 0.01 0.01 0.02 0.01 0.01 0.01 0.00 0.00 0.00 0.00 0.00 0.00 0.01 0.01 0.05 0.05 0.02 0.04 0.04 0.05 0.07 0.04 0.03
0.00 0.00 0.00 0.00 0.00 0.00 0.00 0.00 0.00 0.00 0.01 0.01 0.01 0.00 0.00 0.00 0.00 0.01 0.01 0.01 0.01 0.02 0.02 0.01 0.01 0.01 0.00 0.00 0.00 0.00 0.00 0.00 0.01 0.02 0.15 0.18 0.04 0.02 0.02 0.02 0.03 0.02 0.01
0.00 0.00 0.00 0.00 0.00 0.00 0.00 0.00 0.00 0.01 0.01 0.01 0.01 0.01 0.01 0.01 0.01 0.01 0.01 0.01 0.01 0.02 0.02 0.01 0.01 0.01 0.00 0.00 0.00 0.00 0.00 0.00 0.01 0.03 0.08 0.16 0.15 0.07 0.04 0.02 0.02 0.02 0.02
0.00 0.00 0.00 0.00 0.00 0.00 0.00 0.00 0.01 0.01 0.01 0.01 0.01 0.01 0.01 0.01 0.01 0.02 0.02 0.02 0.02 0.02 0.02 0.01 0.01 0.01 0.00 0.00 0.00 0.01 0.01 0.00 0.01 0.03 0.03 0.09 0.20 0.15 0.13 0.09 0.04 0.02 0.01
0.00 0.00 0.00 0.01 0.01 0.00 0.00 0.00 0.00 0.01 0.01 0.01 0.01 0.01 0.01 0.01 0.01 0.02 0.02 0.02 0.01 0.01 0.01 0.01 0.01 0.01 0.00 0.00 0.00 0.01 0.01 0.01 0.03 0.07 0.06 0.11 0.25 0.23 0.40 0.43 0.26 0.13 0.04
0.00 0.00 0.00 0.01 0.01 0.01 0.01 0.00 0.00 0.01 0.01 0.00 0.00 0.01 0.01 0.01 0.02 0.02 0.02 0.02 0.02 0.01 0.01 0.01 0.00 0.00 0.00 0.01 0.01 0.03 0.06 0.05 0.05 0.08 0.11 0.18 0.22 0.25 0.61 0.74 0.58 0.41 0.27
0.00 0.00 0.01 0.01 0.01 0.01 0.01 0.01 0.01 0.01 0.01 0.01 0.00 0.00 0.01 0.01 0.01 0.01 0.02 0.02 0.03 0.03 0.02 0.01 0.01 0.01 0.01 0.02 0.05 0.10 0.12 0.09 0.06 0.10 0.08 0.14 0.17 0.25 0.67 0.76 0.60 0.49 0.38
0.00 0.00 0.01 0.01 0.02 0.02 0.02 0.02 0.01 0.02 0.02 0.01 0.01 0.01 0.01 0.01 0.01 0.01 0.01 0.01 0.02 0.03 0.03 0.02 0.03 0.04 0.04 0.06 0.10 0.11 0.10 0.05 0.06 0.08 0.05 0.07 0.14 0.35 0.67 0.77 0.75 0.65 0.49
0.01 0.01 0.01 0.02 0.02 0.02 0.02 0.02 0.04 0.04 0.03 0.03 0.03 0.02 0.02 0.01 0.02 0.03 0.03 0.04 0.05 0.07 0.08 0.08 0.11 0.14 0.15 0.13 0.16 0.16 0.13 0.12 0.16 0.05 0.04 0.06 0.17 0.39 0.59 0.74 0.81 0.77 0.68
0.01 0.01 0.01 0.02 0.03 0.03 0.03 0.05 0.08 0.08 0.09 0.08 0.08 0.10 0.11 0.12 0.08 0.05 0.11 0.16 0.19 0.27 0.28 0.28 0.36 0.36 0.27 0.18 0.26 0.47 0.20 0.16 0.15 0.10 0.13 0.13 0.22 0.37 0.53 0.63 0.65 0.68 0.69
0.02 0.01 0.02 0.02 0.03 0.05 0.06 0.07 0.10 0.15 0.27 0.29 0.29 0.35 0.38 0.38 0.24 0.15 0.18 0.26 0.33 0.43 0.42 0.56 0.72 0.50 0.43 0.43 0.46 0.51 0.30 0.26 0.21 0.21 0.23 0.30 0.39 0.51 0.59 0.55 0.57 0.64 0.66
0.06 0.06 0.06 0.06 0.06 0.07 0.09 0.10 0.12 0.15 0.23 0.28 0.31 0.39 0.53 0.49 0.41 0.35 0.30 0.29 0.39 0.49 0.66 0.73 0.79 0.80 0.83 0.70 0.63 0.57 0.51 0.48 0.38 0.38 0.42 0.48 0.60 0.69 0.73 0.61 0.55 0.57 0.62
0.15 0.21 0.23 0.20 0.18 0.16 0.17 0.17 0.14 0.16 0.18 0.20 0.33 0.45 0.58 0.64 0.68 0.74 0.62 0.57 0.48 0.61 0.86 1.04 0.94 1.02 1.13 1.00 0.82 0.73 0.66 0.58 0.51 0.46 0.48 0.58 0.56 0.59 0.68 0.67 0.62 0.57 0.57
0.26 0.39 0.43 0.44 0.45 0.45 0.44 0.38 0.34 0.31 0.31 0.36 0.52 0.64 0.93 1.05 1.08 1.12 1.02 0.92 0.71 0.76 0.97 1.16 1.13 1.22 1.15 1.12 0.83 0.75 0.68 0.67 0.60 0.55 0.54 0.60 0.57 0.48 0.48 0.55 0.60 0.64 0.64
0.44 0.57 0.70 0.76 0.86 0.97 0.96 0.82 0.72 0.59 0.60 0.71 0.91 1.12 1.36 1.50 1.54 1.57 1.39 1.14 1.03 1.19 1.27 1.25 1.22 1.42 1.13 1.01 0.86 0.90 0.86 0.79 0.68 0.62 0.58 0.53 0.46 0.40 0.36 0.39 0.50 0.60 0.71
0.74 0.93 1.11 1.27 1.46 1.59 1.47 1.28 1.23 1.19 1.24 1.21 1.29 1.46 1.52 1.59 1.65 1.79 1.48 1.20 1.38 1.56 1.50 1.41 1.42 1.55 1.36 1.28 1.16 1.04 0.92 0.80 0.57 0.52 0.44 0.36 0.36 0.29 0.32 0.39 0.44 0.52 0.74
1.29 1.52 1.75 2.04 2.19 2.05 1.85 1.70 1.65 1.59 1.49 1.32 1.18 1.17 1.16 1.16 1.22 1.26 0.96 0.90 1.18 1.26 1.13 1.09 1.30 1.37 1.29 1.32 1.22 0.94 0.72 0.56 0.44 0.38 0.36 0.24 0.25 0.25 0.25 0.34 0.35 0.44 0.69
1.71 2.22 2.64 2.70 2.38 2.07 1.81 1.61 1.52 1.39 1.29 1.16 0.99 0.90 0.81 0.80 0.83 0.86 0.69 0.70 0.96 1.01 0.92 1.03 1.11 1.11 0.97 0.97 0.83 0.55 0.51 0.39 0.35 0.31 0.24 0.20 0.20 0.18 0.17 0.24 0.32 0.30 0.52
2.30 2.97 3.18 2.77 2.34 1.94 1.65 1.39 1.16 0.96 0.91 0.86 0.73 0.68 0.69 0.70 0.73 0.82 0.72 0.79 0.94 0.93 0.89 0.93 0.95 0.83 0.64 0.77 0.77 0.47 0.30 0.25 0.25 0.21 0.18 0.16 0.13 0.13 0.15 0.22 0.30 0.34 0.32
2.23 2.69 2.68 2.23 1.78 1.31 1.02 0.92 0.81 0.69 0.60 0.51 0.48 0.51 0.48 0.55 0.62 0.71 0.66 0.58 0.63 0.65 0.59 0.62 0.74 0.74 0.63 0.71 0.73 0.56 0.31 0.24 0.20 0.14 0.15 0.13 0.11 0.14 0.17 0.20 0.29 0.40 0.41
2.05 1.94 1.78 1.35 0.87 0.65 0.49 0.47 0.42 0.41 0.40 0.32 0.29 0.32 0.32 0.35 0.39 0.46 0.49 0.50 0.54 0.62 0.59 0.58 0.61 0.63 0.56 0.52 0.55 0.55 0.37 0.20 0.17 0.15 0.15 0.12 0.14 0.20 0.26 0.29 0.32 0.34 0.41
1.51 1.17 0.89 0.69 0.44 0.32 0.29 0.32 0.32 0.30 0.30 0.25 0.23 0.24 0.23 0.24 0.27 0.30 0.33 0.33 0.40 0.51 0.57 0.51 0.50 0.51 0.49 0.39 0.40 0.40 0.37 0.32 0.27 0.19 0.16 0.16 0.20 0.26 0.35 0.42 0.47 0.46 0.45
0.83 0.67 0.53 0.45 0.35 0.34 0.35 0.37 0.38 0.28 0.23 0.21 0.20 0.20 0.20 0.23 0.26 0.27 0.27 0.27 0.30 0.35 0.38 0.40 0.45 0.46 0.44 0.35 0.32 0.36 0.42 0.43 0.42 0.34 0.25 0.21 0.20 0.20 0.30 0.41 0.52 0.55 0.49
0.34 0.35 0.36 0.40 0.44 0.42 0.35 0.31 0.31 0.27 0.23 0.20 0.18 0.18 0.19 0.22 0.26 0.29 0.30 0.30 0.32 0.32 0.33 0.35 0.38 0.41 0.43 0.42 0.37 0.39 0.45 0.47 0.43 0.44 0.37 0.30 0.27 0.25 0.29 0.41 0.65 0.77 0.69

GEFSSE_prec_meanprecacc_054.txt.gz
Total_Precipitation_Accumulation
0.00 0.00 0.01 0.00 0.00 0.00 0.00 0.00 0.00 0.00 0.00 0.00 0.00 0.00 0.00 0.00 0.00 0.00 0.00 0.00 0.00 0.01 0.01 0.01 0.01 0.01 0.01 0.01 0.01 0.01 0.01 0.01 0.01 0.02 0.02 0.04 0.05 0.05 0.06 0.08 0.19 0.22 0.13
0.00 0.00 0.01 0.00 0.00 0.00 0.00 0.00 0.00 0.00 0.00 0.00 0.00 0.00 0.00 0.00 0.00 0.00 0.00 0.00 0.01 0.01 0.01 0.01 0.01 0.01 0.01 0.01 0.00 0.00 0.00 0.01 0.02 0.02 0.03 0.04 0.07 0.08 0.06 0.07 0.17 0.16 0.08
0.00 0.00 0.00 0.00 0.00 0.00 0.00 0.00 0.00 0.00 0.00 0.01 0.00 0.00 0.00 0.00 0.00 0.00 0.00 0.01 0.01 0.01 0.02 0.01 0.01 0.01 0.00 0.00 0.00 0.00 0.00 0.01 0.02 0.03 0.06 0.05 0.03 0.06 0.07 0.08 0.10 0.07 0.05
0.00 0.00 0.00 0.00 0.00 0.00 0.00 0.00 0.00 0.00 0.01 0.01 0.01 0.01 0.00 0.00 0.00 0.01 0.01 0.01 0.01 0.02 0.02 0.02 0.01 0.01 0.00 0.00 0.00 0.00 0.00 0.00 0.01 0.04 0.17 0.19 0.05 0.03 0.03 0.03 0.04 0.03 0.02
0.00 0.00 0.00 0.00 0.00 0.00 0.00 0.00 0.00 0.01 0.01 0.01 0.01 0.01 0.01 0.01 0.01 0.01 0.01 0.01 0.02 0.02 0.03 0.02 0.01 0.01 0.00 0.00 0.00 0.00 0.00 0.00 0.02 0.05 0.10 0.16 0.16 0.07 0.04 0.02 0.02 0.03 0.02
0.00 0.00 0.00 0.00 0.00 0.00 0.00 0.00 0.01 0.01 0.01 0.01 0.01 0.01 0.01 0.01 0.01 0.02 0.02 0.02 0.02 0.02 0.02 0.02 0.01 0.01 0.00 0.00 0.00 0.01 0.01 0.00 0.01 0.04 0.06 0.11 0.21 0.16 0.14 0.09 0.04 0.02 0.02
0.00 0.00 0.00 0.01 0.01 0.00 0.00 0.00 0.00 0.01 0.01 0.01 0.01 0.01 0.01 0.01 0.02 0.02 0.02 0.02 0.02 0.02 0.01 0.01 0.01 0.01 0.00 0.00 0.00 0.01 0.01 0.01 0.03 0.09 0.11 0.15 0.27 0.25 0.41 0.43 0.26 0.13 0.04
0.00 0.00 0.00 0.01 0.01 0.01 0.01 0.00 0.00 0.01 0.01 0.01 0.01 0.01 0.01 0.01 0.02 0.02 0.02 0.02 0.02 0.02 0.01 0.01 0.00 0.01 0.00 0.01 0.01 0.03 0.06 0.05 0.05 0.10 0.15 0.22 0.25 0.28 0.62 0.74 0.58 0.41 0.27
0.00 0.00 0.01 0.01 0.01 0.01 0.01 0.01 0.01 0.01 0.01 0.01 0.01 0.01 0.01 0.01 0.01 0.02 0.02 0.03 0.03 0.04 0.02 0.01 0.01 0.01 0.01 0.02 0.05 0.10 0.12 0.09 0.06 0.10 0.10 0.18 0.21 0.31 0.70 0.77 0.60 0.49 0.38
0.01 0.01 0.01 0.01 0.02 0.02 0.02 0.02 0.01 0.02 0.02 0.01 0.01 0.01 0.01 0.01 0.01 0.02 0.02 0.02 0.03 0.04 0.04 0.03 0.03 0.04 0.04 0.06 0.10 0.11 0.10 0.05 0.06 0.08 0.06 0.09 0.18 0.42 0.73 0.80 0.76 0.66 0.50
0.03 0.02 0.01 0.02 0.03 0.03 0.02 0.03 0.04 0.04 0.03 0.03 0.03 0.02 0.02 0.01 0.02 0.04 0.04 0.07 0.08 0.10 0.11 0.11 0.13 0.15 0.16 0.14 0.16 0.16 0.13 0.12 0.16 0.05 0.04 0.07 0.21 0.47 0.66 0.78 0.83 0.79 0.69
0.05 0.03 0.03 0.03 0.04 0.05 0.05 0.07 0.10 0.09 0.11 0.09 0.09 0.11 0.11 0.12 0.09 0.06 0.14 0.23 0.27 0.35 0.36 0.35 0.42 0.41 0.31 0.20 0.28 0.48 0.21 0.17 0.16 0.10 0.13 0.14 0.24 0.44 0.61 0.69 0.68 0.70 0.71
0.06 0.05 0.05 0.07 0.07 0.08 0.09 0.10 0.13 0.18 0.31 0.33 0.33 0.39 0.41 0.40 0.27 0.18 0.23 0.34 0.44 0.57 0.55 0.69 0.85 0.61 0.52 0.48 0.51 0.54 0.32 0.27 0.22 0.21 0.23 0.31 0.42 0.58 0.68 0.63 0.63 0.67 0.68
0.12 0.12 0.14 0.16 0.15 0.14 0.16 0.16 0.17 0.21 0.30 0.34 0.38 0.47 0.61 0.56 0.45 0.39 0.36 0.38 0.52 0.64 0.84 0.93 0.98 0.98 1.00 0.82 0.71 0.62 0.55 0.50 0.39 0.40 0.43 0.51 0.66 0.79 0.87 0.73 0.63 0.62 0.65
0.25 0.32 0.34 0.33 0.30 0.28 0.28 0.27 0.22 0.24 0.24 0.27 0.41 0.54 0.71 0.76 0.76 0.81 0.70 0.67 0.61 0.78 1.06 1.26 1.19 1.28 1.38 1.23 0.98 0.84 0.75 0.66 0.57 0.51 0.53 0.68 0.67 0.70 0.81 0.80 0.72 0.65 0.63
0.37 0.51 0.55 0.56 0.57 0.56 0.55 0.49 0.44 0.40 0.39 0.44 0.61 0.73 1.03 1.14 1.16 1.19 1.08 0.99 0.78 0.87 1.12 1.37 1.40 1.53 1.50 1.45 1.11 0.98 0.85 0.82 0.73 0.66 0.65 0.75 0.78 0.67 0.66 0.73 0.75 0.76 0.73
0.55 0.68 0.80 0.88 0.99 1.09 1.08 0.94 0.81 0.66 0.67 0.79 1.00 1.18 1.41 1.56 1.60 1.61 1.43 1.19 1.09 1.28 1.38 1.39 1.44 1.76 1.57 1.44 1.23 1.24 1.15 1.03 0.88 0.81 0.78 0.76 0.66 0.62 0.58 0.56 0.63 0.72 0.81
0.83 1.01 1.20 1.38 1.58 1.70 1.57 1.38 1.30 1.24 1.29 1.27 1.34 1.50 1.56 1.63 1.70 1.84 1.52 1.25 1.44 1.63 1.57 1.50 1.56 1.75 1.72 1.75 1.62 1.47 1.31 1.14 0.85 0.79 0.74 0.65 0.63 0.47 0.48 0.57 0.59 0.64 0.84
1.35 1.58 1.81 2.10 2.24 2.10 1.90 1.74 1.68 1.62 1.51 1.35 1.20 1.19 1.17 1.18 1.24 1.29 0.99 0.93 1.22 1.31 1.19 1.15 1.38 1.52 1.52 1.63 1.61 1.33 1.08 0.90 0.75 0.67 0.66 0.51 0.50 0.48 0.41 0.50 0.54 0.59 0.81
1.74 2.24 2.67 2.73 2.41 2.09 1.84 1.63 1.53 1.40 1.30 1.18 1.00 0.91 0.82 0.81 0.84 0.87 0.71 0.71 0.98 1.04 0.96 1.08 1.18 1.21 1.15 1.22 1.12 0.84 0.76 0.63 0.61 0.56 0.45 0.40 0.39 0.36 0.38 0.41 0.48 0.43 0.65
2.30 2.98 3.19 2.78 2.35 1.95 1.67 1.41 1.17 0.97 0.91 0.87 0.73 0.69 0.69 0.71 0.73 0.82 0.72 0.79 0.94 0.94 0.91 0.97 1.03 0.95 0.80 0.96 1.01 0.72 0.53 0.46 0.46 0.39 0.32 0.30 0.25 0.26 0.33 0.40 0.46 0.47 0.39
2.23 2.70 2.68 2.23 1.79 1.32 1.02 0.92 0.82 0.69 0.60 0.51 0.48 0.51 0.49 0.55 0.63 0.72 0.66 0.58 0.63 0.65 0.60 0.64 0.81 0.83 0.73 0.85 0.93 0.79 0.54 0.47 0.39 0.26 0.26 0.23 0.20 0.25 0.33 0.36 0.46 0.56 0.54
2.05 1.94 1.78 1.35 0.88 0.65 0.49 0.47 0.42 0.41 0.40 0.33 0.29 0.32 0.32 0.35 0.39 0.46 0.49 0.50 0.55 0.62 0.60 0.60 0.64 0.68 0.62 0.63 0.76 0.83 0.62 0.40 0.34 0.30 0.28 0.23 0.23 0.31 0.38 0.45 0.48 0.50 0.55
1.52 1.17 0.89 0.69 0.45 0.32 0.29 0.32 0.32 0.30 0.30 0.26 0.23 0.25 0.23 0.24 0.27 0.30 0.33 0.34 0.41 0.52 0.58 0.54 0.54 0.57 0.56 0.48 0.52 0.59 0.58 0.52 0.44 0.33 0.31 0.31 0.31 0.38 0.50 0.59 0.65 0.60 0.56
0.83 0.67 0.53 0.45 0.35 0.34 0.35 0.37 0.39 0.28 0.23 0.21 0.20 0.20 0.20 0.23 0.26 0.27 0.28 0.28 0.31 0.35 0.39 0.42 0.48 0.52 0.53 0.48 0.47 0.52 0.59 0.60 0.56 0.47 0.37 0.36 0.33 0.29 0.40 0.55 0.68 0.70 0.60
0.34 0.35 0.36 0.40 0.44 0.42 0.35 0.31 0.31 0.27 0.23 0.20 0.18 0.18 0.19 0.22 0.26 0.29 0.30 0.30 0.32 0.32 0.33 0.36 0.39 0.43 0.48 0.52 0.50 0.54 0.63 0.65 0.59 0.56 0.49 0.42 0.39 0.34 0.37 0.52 0.74 0.85 0.78

GEFSSE_prec_meanprecacc_060.txt.gz
Total_Precipitation_Accumulation
0.00 0.00 0.01 0.01 0.00 0.00 0.00 0.00 0.00 0.00 0.00 0.00 0.00 0.00 0.00 0.00 0.00 0.00 0.00 0.01 0.01 0.01 0.01 0.01 0.01 0.01 0.01 0.01 0.01 0.01 0.01 0.01 0.01 0.02 0.03 0.05 0.06 0.07 0.09 0.13 0.24 0.27 0.21
0.00 0.00 0.01 0.01 0.00 0.00 0.00 0.00 0.00 0.00 0.00 0.00 0.00 0.00 0.00 0.00 0.00 0.00 0.00 0.00 0.01 0.01 0.01 0.01 0.01 0.01 0.01 0.01 0.01 0.00 0.00 0.01 0.02 0.03 0.04 0.06 0.10 0.12 0.09 0.10 0.21 0.20 0.13
0.00 0.00 0.01 0.01 0.00 0.00 0.00 0.00 0.00 0.00 0.00 0.01 0.00 0.00 0.00 0.00 0.00 0.00 0.01 0.01 0.01 0.01 0.02 0.01 0.01 0.01 0.01 0.00 0.00 0.00 0.00 0.01 0.02 0.03 0.07 0.06 0.07 0.13 0.11 0.10 0.13 0.09 0.08
0.00 0.00 0.00 0.00 0.00 0.00 0.00 0.00 0.00 0.00 0.01 0.01 0.01 0.01 0.00 0.00 0.00 0.01 0.01 0.01 0.01 0.02 0.03 0.02 0.01 0.01 0.00 0.00 0.00 0.00 0.01 0.01 0.02 0.04 0.17 0.19 0.06 0.09 0.06 0.05 0.06 0.04 0.04
0.00 0.00 0.00 0.01 0.00 0.00 0.00 0.00 0.01 0.01 0.01 0.01 0.01 0.01 0.01 0.01 0.01 0.01 0.01 0.02 0.02 0.03 0.03 0.02 0.01 0.01 0.00 0.00 0.00 0.00 0.01 0.01 0.02 0.05 0.10 0.17 0.16 0.10 0.06 0.03 0.04 0.04 0.03
0.00 0.00 0.00 0.01 0.01 0.00 0.00 0.01 0.01 0.01 0.02 0.02 0.01 0.01 0.01 0.01 0.02 0.02 0.02 0.02 0.02 0.03 0.03 0.02 0.02 0.01 0.00 0.00 0.00 0.01 0.01 0.01 0.02 0.04 0.07 0.11 0.22 0.18 0.15 0.10 0.05 0.04 0.02
0.00 0.00 0.00 0.01 0.01 0.01 0.00 0.00 0.01 0.01 0.01 0.01 0.01 0.01 0.02 0.02 0.02 0.02 0.03 0.02 0.02 0.03 0.03 0.02 0.01 0.01 0.01 0.00 0.00 0.01 0.02 0.02 0.03 0.09 0.11 0.15 0.28 0.26 0.42 0.44 0.27 0.14 0.05
0.00 0.00 0.01 0.01 0.01 0.01 0.01 0.01 0.01 0.01 0.01 0.01 0.01 0.01 0.02 0.02 0.03 0.03 0.03 0.03 0.03 0.03 0.02 0.02 0.01 0.01 0.01 0.01 0.01 0.03 0.06 0.05 0.06 0.10 0.15 0.23 0.26 0.31 0.64 0.75 0.58 0.42 0.27
0.00 0.00 0.01 0.01 0.01 0.02 0.01 0.01 0.01 0.02 0.02 0.02 0.01 0.02 0.02 0.02 0.02 0.03 0.03 0.04 0.05 0.06 0.04 0.03 0.02 0.02 0.02 0.03 0.06 0.10 0.12 0.10 0.07 0.11 0.11 0.19 0.23 0.33 0.74 0.79 0.61 0.50 0.38
0.01 0.01 0.01 0.01 0.02 0.02 0.02 0.02 0.02 0.02 0.02 0.02 0.02 0.02 0.02 0.02 0.03 0.03 0.04 0.04 0.05 0.07 0.07 0.06 0.06 0.07 0.07 0.08 0.11 0.12 0.11 0.06 0.06 0.09 0.07 0.11 0.20 0.46 0.79 0.84 0.78 0.67 0.50
0.05 0.03 0.02 0.03 0.04 0.04 0.03 0.04 0.05 0.05 0.05 0.04 0.04 0.03 0.03 0.03 0.03 0.05 0.06 0.10 0.12 0.15 0.16 0.17 0.19 0.22 0.22 0.18 0.18 0.18 0.14 0.13 0.16 0.05 0.05 0.08 0.23 0.51 0.74 0.85 0.88 0.81 0.70
0.06 0.04 0.04 0.05 0.06 0.07 0.06 0.09 0.12 0.12 0.14 0.12 0.10 0.13 0.13 0.14 0.10 0.08 0.16 0.29 0.36 0.47 0.48 0.48 0.58 0.57 0.44 0.28 0.33 0.53 0.24 0.19 0.17 0.10 0.14 0.15 0.26 0.48 0.69 0.79 0.76 0.75 0.74
0.08 0.07 0.09 0.12 0.12 0.12 0.12 0.13 0.17 0.23 0.37 0.39 0.37 0.43 0.44 0.43 0.31 0.22 0.26 0.41 0.54 0.71 0.68 0.85 1.09 0.82 0.69 0.62 0.62 0.63 0.40 0.33 0.24 0.22 0.24 0.32 0.44 0.62 0.76 0.75 0.75 0.77 0.75
0.18 0.17 0.20 0.26 0.26 0.26 0.28 0.28 0.28 0.30 0.37 0.43 0.46 0.54 0.68 0.66 0.59 0.53 0.48 0.49 0.62 0.74 0.95 1.08 1.16 1.20 1.23 1.02 0.88 0.76 0.66 0.57 0.42 0.42 0.45 0.53 0.68 0.84 0.95 0.84 0.78 0.75 0.75
0.34 0.43 0.51 0.53 0.50 0.51 0.51 0.49 0.40 0.38 0.37 0.39 0.54 0.66 0.84 0.92 0.95 0.98 0.86 0.84 0.74 0.90 1.18 1.38 1.33 1.47 1.60 1.43 1.18 1.01 0.89 0.75 0.62 0.54 0.55 0.70 0.71 0.75 0.89 0.93 0.90 0.81 0.78
0.53 0.73 0.80 0.79 0.81 0.80 0.78 0.74 0.66 0.59 0.57 0.59 0.74 0.88 1.18 1.28 1.30 1.34 1.22 1.11 0.88 0.97 1.21 1.46 1.51 1.66 1.65 1.62 1.26 1.13 0.98 0.92 0.81 0.72 0.69 0.78 0.82 0.74 0.74 0.85 0.92 0.94 0.92
0.74 0.92 1.02 1.08 1.22 1.32 1.28 1.11 0.97 0.83 0.83 0.93 1.13 1.31 1.53 1.66 1.71 1.73 1.54 1.29 1.17 1.35 1.45 1.46 1.52 1.87 1.70 1.54 1.31 1.36 1.29 1.17 1.00 0.89 0.86 0.83 0.71 0.69 0.68 0.68 0.79 0.90 1.03
0.98 1.16 1.34 1.53 1.73 1.84 1.70 1.51 1.42 1.34 1.38 1.35 1.43 1.58 1.62 1.70 1.78 1.92 1.62 1.32 1.49 1.68 1.62 1.55 1.60 1.80 1.78 1.82 1.68 1.56 1.43 1.28 0.98 0.89 0.84 0.74 0.69 0.52 0.56 0.69 0.75 0.82 1.07
1.45 1.67 1.90 2.20 2.33 2.18 1.98 1.82 1.75 1.67 1.56 1.39 1.25 1.22 1.19 1.20 1.27 1.32 1.02 0.95 1.24 1.33 1.20 1.17 1.41 1.56 1.56 1.68 1.68 1.41 1.19 1.01 0.84 0.78 0.76 0.60 0.59 0.57 0.50 0.62 0.70 0.76 1.04
1.79 2.29 2.71 2.77 2.44 2.13 1.87 1.66 1.56 1.42 1.32 1.19 1.02 0.92 0.83 0.81 0.85 0.88 0.71 0.72 0.98 1.04 0.96 1.08 1.18 1.22 1.16 1.23 1.15 0.90 0.85 0.73 0.71 0.66 0.54 0.50 0.48 0.45 0.48 0.54 0.63 0.58 0.85
2.32 2.99 3.20 2.80 2.37 1.96 1.68 1.41 1.17 0.98 0.92 0.87 0.74 0.69 0.69 0.71 0.74 0.83 0.72 0.79 0.94 0.94 0.91 0.97 1.03 0.96 0.80 0.97 1.03 0.75 0.59 0.55 0.55 0.48 0.43 0.41 0.34 0.33 0.41 0.49 0.58 0.61 0.53
2.24 2.70 2.69 2.24 1.79 1.32 1.03 0.93 0.82 0.69 0.60 0.51 0.48 0.51 0.49 0.55 0.63 0.72 0.66 0.58 0.63 0.65 0.60 0.64 0.81 0.83 0.73 0.86 0.95 0.82 0.57 0.51 0.46 0.33 0.34 0.32 0.28 0.34 0.42 0.44 0.55 0.66 0.67
2.05 1.94 1.78 1.35 0.88 0.65 0.49 0.47 0.42 0.41 0.40 0.33 0.29 0.32 0.32 0.35 0.39 0.46 0.49 0.50 0.55 0.62 0.60 0.60 0.64 0.68 0.62 0.63 0.78 0.88 0.67 0.44 0.38 0.34 0.32 0.28 0.30 0.40 0.47 0.55 0.57 0.57 0.64
1.52 1.17 0.89 0.69 0.45 0.32 0.29 0.32 0.32 0.30 0.30 0.26 0.23 0.25 0.23 0.24 0.27 0.30 0.33 0.34 0.41 0.52 0.58 0.54 0.54 0.57 0.56 0.49 0.55 0.64 0.64 0.57 0.50 0.38 0.35 0.35 0.38 0.47 0.60 0.67 0.73 0.68 0.65
0.83 0.67 0.53 0.45 0.35 0.34 0.35 0.37 0.39 0.28 0.23 0.21 0.20 0.20 0.20 0.23 0.26 0.27 0.28 0.28 0.31 0.35 0.39 0.42 0.48 0.52 0.53 0.49 0.48 0.54 0.62 0.64 0.62 0.53 0.43 0.40 0.38 0.34 0.48 0.65 0.76 0.76 0.67
0.34 0.35 0.36 0.40 0.44 0.42 0.35 0.31 0.31 0.27 0.23 0.20 0.18 0.18 0.19 0.22 0.26 0.29 0.30 0.30 0.32 0.32 0.33 0.36 0.39 0.43 0.49 0.52 0.51 0.55 0.64 0.68 0.64 0.62 0.54 0.46 0.43 0.38 0.42 0.58 0.81 0.90 0.82

GEFSSE_prec_meanprecacc_066.txt.gz
Total_Precipitation_Accumulation
0.00 0.00 0.01 0.01 0.01 0.00 0.01 0.02 0.02 0.02 0.02 0.02 0.01 0.01 0.01 0.00 0.01 0.01 0.01 0.01 0.01 0.01 0.01 0.01 0.01 0.01 0.02 0.02 0.02 0.02 0.02 0.01 0.01 0.02 0.03 0.05 0.07 0.10 0.14 0.19 0.31 0.34 0.25
0.00 0.00 0.01 0.01 0.01 0.00 0.01 0.01 0.02 0.02 0.02 0.01 0.01 0.01 0.01 0.00 0.00 0.01 0.01 0.01 0.01 0.01 0.01 0.01 0.01 0.01 0.01 0.01 0.01 0.01 0.01 0.01 0.02 0.04 0.05 0.07 0.12 0.16 0.15 0.17 0.27 0.24 0.16
0.00 0.00 0.01 0.01 0.01 0.00 0.00 0.01 0.01 0.01 0.01 0.01 0.01 0.01 0.00 0.00 0.00 0.00 0.01 0.01 0.01 0.01 0.02 0.01 0.01 0.01 0.01 0.01 0.01 0.01 0.01 0.01 0.03 0.04 0.09 0.12 0.11 0.18 0.15 0.16 0.16 0.12 0.10
0.00 0.00 0.01 0.01 0.01 0.01 0.00 0.01 0.01 0.01 0.01 0.01 0.01 0.01 0.01 0.00 0.01 0.01 0.01 0.01 0.02 0.02 0.03 0.02 0.01 0.01 0.01 0.00 0.00 0.00 0.01 0.01 0.03 0.05 0.19 0.21 0.10 0.12 0.10 0.10 0.10 0.06 0.06
0.00 0.00 0.01 0.01 0.01 0.01 0.01 0.01 0.01 0.01 0.01 0.01 0.01 0.01 0.01 0.01 0.01 0.01 0.02 0.02 0.02 0.03 0.03 0.03 0.02 0.01 0.00 0.00 0.00 0.01 0.01 0.01 0.03 0.05 0.11 0.18 0.23 0.15 0.11 0.08 0.08 0.07 0.06
0.00 0.00 0.01 0.01 0.01 0.01 0.01 0.01 0.02 0.02 0.02 0.02 0.01 0.01 0.01 0.02 0.02 0.02 0.02 0.02 0.03 0.04 0.04 0.03 0.02 0.01 0.01 0.01 0.01 0.01 0.01 0.01 0.03 0.05 0.07 0.12 0.25 0.21 0.19 0.14 0.09 0.07 0.05
0.00 0.00 0.01 0.02 0.01 0.01 0.01 0.01 0.01 0.02 0.02 0.02 0.02 0.02 0.02 0.02 0.03 0.03 0.03 0.03 0.04 0.04 0.04 0.03 0.02 0.02 0.01 0.01 0.01 0.01 0.02 0.02 0.05 0.10 0.11 0.16 0.30 0.29 0.45 0.48 0.31 0.18 0.07
0.00 0.00 0.01 0.02 0.02 0.02 0.02 0.02 0.02 0.02 0.03 0.02 0.03 0.02 0.03 0.03 0.04 0.04 0.05 0.04 0.05 0.05 0.06 0.05 0.03 0.03 0.02 0.02 0.02 0.04 0.07 0.07 0.08 0.12 0.16 0.24 0.27 0.32 0.67 0.79 0.62 0.47 0.29
0.01 0.01 0.01 0.02 0.03 0.03 0.03 0.03 0.03 0.03 0.04 0.04 0.04 0.04 0.04 0.03 0.04 0.05 0.06 0.07 0.08 0.09 0.09 0.09 0.07 0.06 0.05 0.05 0.07 0.11 0.13 0.12 0.11 0.14 0.13 0.22 0.24 0.35 0.77 0.83 0.65 0.54 0.41
0.02 0.02 0.02 0.03 0.04 0.05 0.05 0.04 0.04 0.05 0.05 0.05 0.05 0.06 0.06 0.06 0.07 0.09 0.09 0.08 0.11 0.13 0.14 0.13 0.14 0.14 0.13 0.12 0.13 0.13 0.12 0.07 0.09 0.11 0.10 0.13 0.22 0.48 0.82 0.88 0.81 0.71 0.53
0.05 0.03 0.03 0.04 0.06 0.06 0.05 0.06 0.08 0.09 0.09 0.08 0.09 0.09 0.10 0.11 0.13 0.15 0.15 0.18 0.20 0.23 0.26 0.27 0.29 0.32 0.32 0.27 0.25 0.23 0.17 0.14 0.18 0.08 0.08 0.10 0.25 0.56 0.78 0.92 0.92 0.85 0.74
0.07 0.05 0.05 0.07 0.08 0.08 0.08 0.11 0.18 0.19 0.23 0.21 0.20 0.23 0.24 0.26 0.22 0.17 0.23 0.36 0.46 0.59 0.60 0.60 0.71 0.71 0.56 0.38 0.44 0.63 0.30 0.23 0.19 0.12 0.16 0.16 0.29 0.52 0.77 0.90 0.84 0.81 0.78
0.08 0.08 0.10 0.13 0.13 0.15 0.15 0.17 0.24 0.32 0.47 0.50 0.50 0.58 0.58 0.57 0.43 0.34 0.39 0.53 0.66 0.84 0.83 1.00 1.24 0.99 0.86 0.79 0.79 0.77 0.50 0.41 0.28 0.24 0.25 0.33 0.46 0.67 0.84 0.90 0.91 0.88 0.83
0.19 0.18 0.21 0.27 0.29 0.30 0.36 0.37 0.38 0.41 0.49 0.56 0.61 0.71 0.87 0.85 0.78 0.72 0.67 0.67 0.78 0.91 1.11 1.24 1.32 1.36 1.39 1.17 1.04 0.93 0.81 0.69 0.50 0.46 0.48 0.55 0.70 0.88 1.01 0.95 0.95 0.92 0.90
0.37 0.46 0.54 0.57 0.55 0.58 0.63 0.60 0.51 0.50 0.49 0.53 0.69 0.83 1.05 1.13 1.14 1.16 1.05 1.02 0.92 1.07 1.33 1.53 1.47 1.61 1.72 1.56 1.31 1.15 1.04 0.88 0.73 0.63 0.62 0.74 0.74 0.79 0.95 1.01 1.03 1.00 0.98
0.60 0.80 0.85 0.86 0.90 0.90 0.89 0.85 0.76 0.69 0.68 0.71 0.86 1.01 1.31 1.41 1.44 1.49 1.38 1.26 1.02 1.10 1.31 1.56 1.60 1.75 1.74 1.73 1.37 1.24 1.10 1.05 0.92 0.83 0.78 0.86 0.87 0.79 0.80 0.91 1.01 1.08 1.11
0.83 1.00 1.09 1.17 1.31 1.41 1.37 1.19 1.03 0.90 0.89 1.00 1.21 1.40 1.62 1.75 1.79 1.82 1.64 1.38 1.26 1.43 1.52 1.53 1.58 1.93 1.77 1.61 1.38 1.43 1.37 1.26 1.08 0.97 0.95 0.91 0.77 0.73 0.71 0.73 0.85 0.99 1.16
1.08 1.24 1.41 1.59 1.79 1.90 1.76 1.56 1.47 1.40 1.43 1.41 1.48 1.63 1.69 1.77 1.84 1.98 1.67 1.37 1.53 1.72 1.67 1.59 1.63 1.84 1.83 1.88 1.74 1.61 1.49 1.34 1.04 0.94 0.91 0.81 0.75 0.57 0.60 0.72 0.80 0.88 1.16
1.49 1.71 1.94 2.22 2.36 2.20 2.00 1.84 1.77 1.70 1.60 1.42 1.27 1.24 1.22 1.23 1.29 1.34 1.03 0.97 1.25 1.33 1.21 1.18 1.43 1.57 1.57 1.70 1.70 1.44 1.23 1.05 0.88 0.82 0.80 0.63 0.65 0.61 0.55 0.66 0.75 0.82 1.11
1.81 2.31 2.73 2.78 2.45 2.14 1.89 1.68 1.58 1.44 1.34 1.21 1.03 0.93 0.84 0.82 0.85 0.89 0.72 0.72 0.99 1.04 0.96 1.08 1.18 1.23 1.17 1.24 1.16 0.91 0.87 0.75 0.74 0.70 0.58 0.55 0.53 0.49 0.52 0.59 0.70 0.64 0.91
2.33 3.00 3.21 2.81 2.38 1.98 1.69 1.43 1.18 0.98 0.92 0.87 0.74 0.69 0.69 0.71 0.74 0.83 0.72 0.80 0.95 0.94 0.92 0.97 1.03 0.96 0.80 0.98 1.03 0.75 0.60 0.56 0.57 0.52 0.48 0.46 0.39 0.38 0.46 0.56 0.65 0.69 0.59
2.24 2.70 2.69 2.25 1.80 1.32 1.03 0.93 0.82 0.69 0.60 0.51 0.48 0.51 0.49 0.55 0.63 0.72 0.66 0.58 0.63 0.65 0.60 0.65 0.81 0.83 0.73 0.87 0.95 0.82 0.58 0.53 0.48 0.36 0.38 0.37 0.34 0.41 0.50 0.53 0.64 0.77 0.77
2.05 1.95 1.78 1.35 0.88 0.65 0.49 0.47 0.42 0.41 0.40 0.33 0.29 0.32 0.32 0.35 0.39 0.46 0.49 0.50 0.55 0.62 0.60 0.60 0.65 0.68 0.62 0.64 0.78 0.89 0.68 0.46 0.39 0.36 0.35 0.32 0.36 0.47 0.56 0.65 0.69 0.70 0.76
1.52 1.17 0.89 0.69 0.45 0.32 0.29 0.32 0.33 0.30 0.30 0.26 0.23 0.25 0.23 0.24 0.27 0.30 0.33 0.34 0.41 0.52 0.58 0.54 0.54 0.57 0.56 0.49 0.55 0.64 0.65 0.60 0.52 0.40 0.38 0.39 0.42 0.51 0.66 0.75 0.82 0.78 0.76
0.84 0.68 0.54 0.46 0.36 0.34 0.35 0.38 0.39 0.28 0.23 0.21 0.20 0.20 0.20 0.23 0.26 0.27 0.28 0.28 0.31 0.35 0.39 0.42 0.49 0.52 0.54 0.49 0.48 0.55 0.62 0.65 0.64 0.56 0.45 0.43 0.41 0.38 0.52 0.70 0.82 0.84 0.77
0.34 0.35 0.36 0.40 0.45 0.42 0.35 0.31 0.31 0.27 0.23 0.20 0.18 0.18 0.19 0.22 0.26 0.29 0.30 0.30 0.32 0.33 0.34 0.36 0.39 0.43 0.49 0.53 0.52 0.56 0.65 0.69 0.65 0.64 0.56 0.49 0.45 0.41 0.46 0.63 0.86 0.97 0.92

GEFSSE_prec_meanprecacc_072.txt.gz
Total_Precipitation_Accumulation
0.00 0.00 0.01 0.01 0.01 0.01 0.02 0.04 0.06 0.06 0.06 0.05 0.04 0.03 0.02 0.01 0.01 0.01 0.01 0.01 0.01 0.01 0.01 0.02 0.02 0.02 0.03 0.03 0.03 0.03 0.02 0.01 0.01 0.02 0.04 0.06 0.09 0.15 0.20 0.29 0.42 0.41 0.28
0.00 0.00 0.01 0.01 0.01 0.01 0.02 0.03 0.05 0.06 0.06 0.05 0.04 0.03 0.02 0.01 0.01 0.01 0.01 0.01 0.01 0.01 0.02 0.02 0.01 0.01 0.02 0.01 0.02 0.01 0.01 0.01 0.03 0.04 0.07 0.09 0.14 0.20 0.21 0.26 0.39 0.31 0.20
0.00 0.00 0.01 0.01 0.01 0.01 0.01 0.02 0.04 0.04 0.05 0.05 0.03 0.02 0.02 0.01 0.01 0.01 0.01 0.01 0.01 0.02 0.02 0.02 0.01 0.01 0.01 0.01 0.01 0.01 0.01 0.02 0.04 0.10 0.25 0.27 0.13 0.20 0.21 0.26 0.26 0.16 0.13
0.00 0.00 0.01 0.01 0.01 0.01 0.01 0.02 0.03 0.04 0.04 0.04 0.03 0.02 0.01 0.01 0.01 0.01 0.01 0.02 0.02 0.03 0.03 0.02 0.02 0.01 0.01 0.01 0.00 0.01 0.01 0.02 0.06 0.16 0.45 0.37 0.16 0.14 0.15 0.17 0.15 0.10 0.08
0.00 0.00 0.01 0.01 0.01 0.01 0.01 0.02 0.03 0.04 0.04 0.03 0.02 0.02 0.01 0.01 0.01 0.01 0.02 0.02 0.03 0.04 0.04 0.03 0.03 0.01 0.01 0.01 0.00 0.01 0.01 0.02 0.07 0.18 0.27 0.35 0.41 0.19 0.13 0.12 0.12 0.08 0.07
0.00 0.00 0.01 0.01 0.01 0.01 0.01 0.02 0.03 0.03 0.03 0.03 0.02 0.02 0.02 0.02 0.02 0.02 0.02 0.03 0.04 0.05 0.05 0.04 0.03 0.02 0.01 0.01 0.01 0.01 0.02 0.03 0.09 0.13 0.13 0.24 0.39 0.24 0.22 0.18 0.13 0.09 0.06
0.00 0.00 0.01 0.02 0.02 0.01 0.01 0.02 0.02 0.03 0.03 0.02 0.02 0.02 0.02 0.02 0.03 0.03 0.03 0.03 0.04 0.05 0.06 0.05 0.04 0.03 0.02 0.01 0.01 0.01 0.02 0.04 0.12 0.16 0.14 0.26 0.40 0.30 0.48 0.52 0.36 0.21 0.10
0.00 0.01 0.02 0.02 0.03 0.02 0.02 0.02 0.03 0.03 0.03 0.03 0.03 0.03 0.03 0.04 0.05 0.05 0.05 0.05 0.06 0.07 0.08 0.08 0.06 0.05 0.04 0.03 0.02 0.04 0.07 0.08 0.11 0.15 0.18 0.32 0.33 0.33 0.70 0.83 0.67 0.51 0.34
0.01 0.01 0.02 0.03 0.03 0.03 0.04 0.04 0.04 0.04 0.05 0.04 0.04 0.05 0.04 0.04 0.05 0.07 0.07 0.08 0.09 0.11 0.11 0.11 0.10 0.09 0.07 0.07 0.08 0.12 0.13 0.12 0.13 0.16 0.16 0.29 0.26 0.35 0.78 0.85 0.68 0.59 0.46
0.02 0.02 0.03 0.04 0.06 0.07 0.07 0.06 0.06 0.07 0.07 0.06 0.06 0.07 0.08 0.08 0.09 0.11 0.11 0.10 0.12 0.15 0.16 0.16 0.17 0.18 0.17 0.15 0.15 0.14 0.12 0.08 0.09 0.12 0.13 0.19 0.24 0.48 0.83 0.89 0.83 0.75 0.58
0.06 0.04 0.04 0.06 0.07 0.08 0.09 0.10 0.11 0.12 0.12 0.10 0.12 0.12 0.13 0.17 0.22 0.26 0.22 0.23 0.23 0.26 0.29 0.31 0.33 0.36 0.35 0.30 0.27 0.25 0.18 0.14 0.18 0.09 0.12 0.18 0.30 0.58 0.80 0.94 0.94 0.89 0.78
0.07 0.05 0.06 0.09 0.09 0.10 0.12 0.19 0.27 0.28 0.34 0.29 0.32 0.35 0.36 0.39 0.33 0.27 0.35 0.45 0.52 0.63 0.65 0.67 0.77 0.75 0.59 0.42 0.52 0.74 0.33 0.24 0.19 0.13 0.20 0.22 0.36 0.58 0.81 0.94 0.88 0.85 0.83
0.09 0.08 0.11 0.14 0.15 0.17 0.19 0.24 0.33 0.44 0.62 0.63 0.61 0.70 0.72 0.69 0.53 0.44 0.53 0.68 0.78 0.93 0.93 1.12 1.36 1.09 0.98 0.90 0.93 0.94 0.59 0.45 0.29 0.25 0.35 0.49 0.58 0.75 0.90 0.94 0.96 0.92 0.87
0.19 0.19 0.22 0.28 0.31 0.33 0.39 0.42 0.46 0.51 0.61 0.68 0.73 0.79 0.97 0.97 0.90 0.84 0.81 0.82 0.93 1.05 1.25 1.39 1.50 1.57 1.57 1.33 1.19 1.09 0.94 0.83 0.59 0.51 0.64 0.87 0.89 0.98 1.08 1.00 1.01 0.98 0.95
0.38 0.47 0.56 0.58 0.57 0.60 0.67 0.66 0.57 0.57 0.58 0.62 0.79 0.90 1.12 1.22 1.23 1.27 1.21 1.18 1.08 1.23 1.49 1.69 1.64 1.78 1.89 1.72 1.46 1.32 1.16 0.99 0.84 0.73 0.80 0.99 0.91 0.89 1.02 1.06 1.08 1.05 1.04
0.62 0.83 0.88 0.88 0.92 0.93 0.93 0.90 0.83 0.75 0.75 0.77 0.91 1.05 1.35 1.46 1.50 1.55 1.46 1.36 1.14 1.23 1.47 1.71 1.75 1.89 1.85 1.84 1.47 1.36 1.21 1.16 1.03 0.95 0.96 1.06 1.00 0.86 0.85 0.97 1.06 1.12 1.17
0.87 1.03 1.12 1.19 1.35 1.45 1.41 1.23 1.08 0.94 0.93 1.03 1.23 1.43 1.65 1.78 1.83 1.85 1.67 1.43 1.32 1.50 1.61 1.62 1.67 2.03 1.85 1.70 1.48 1.54 1.48 1.38 1.19 1.09 1.09 1.08 0.93 0.85 0.78 0.78 0.91 1.03 1.21
1.11 1.26 1.42 1.60 1.84 1.94 1.81 1.60 1.51 1.43 1.46 1.43 1.50 1.65 1.70 1.78 1.86 1.99 1.69 1.39 1.55 1.74 1.70 1.64 1.67 1.88 1.88 1.93 1.80 1.68 1.57 1.42 1.10 1.03 1.01 0.92 0.90 0.71 0.73 0.81 0.86 0.93 1.20
1.52 1.74 1.96 2.25 2.40 2.24 2.04 1.86 1.79 1.72 1.62 1.44 1.28 1.25 1.22 1.23 1.29 1.34 1.04 0.98 1.25 1.34 1.22 1.19 1.44 1.59 1.59 1.73 1.73 1.49 1.29 1.12 0.94 0.88 0.86 0.70 0.74 0.72 0.68 0.80 0.84 0.88 1.15
1.85 2.35 2.76 2.80 2.47 2.15 1.89 1.69 1.59 1.45 1.35 1.21 1.03 0.93 0.84 0.82 0.85 0.89 0.72 0.73 0.99 1.05 0.97 1.09 1.19 1.23 1.17 1.25 1.16 0.92 0.89 0.77 0.77 0.73 0.62 0.61 0.59 0.56 0.60 0.72 0.85 0.73 0.97
2.36 3.03 3.23 2.82 2.39 1.99 1.70 1.44 1.19 0.99 0.93 0.87 0.74 0.69 0.69 0.71 0.74 0.83 0.72 0.80 0.95 0.95 0.92 0.98 1.04 0.96 0.81 0.98 1.04 0.75 0.60 0.56 0.58 0.54 0.50 0.49 0.43 0.44 0.55 0.68 0.79 0.81 0.69
2.26 2.72 2.70 2.26 1.81 1.33 1.04 0.93 0.82 0.70 0.60 0.51 0.48 0.52 0.49 0.55 0.63 0.72 0.66 0.58 0.63 0.65 0.60 0.65 0.82 0.84 0.74 0.87 0.96 0.83 0.58 0.53 0.49 0.37 0.41 0.41 0.39 0.47 0.56 0.61 0.75 0.89 0.86
2.07 1.95 1.79 1.36 0.88 0.66 0.50 0.48 0.43 0.41 0.41 0.33 0.30 0.33 0.32 0.35 0.39 0.47 0.50 0.50 0.55 0.62 0.61 0.61 0.65 0.69 0.63 0.64 0.79 0.89 0.69 0.47 0.40 0.37 0.39 0.37 0.42 0.54 0.62 0.73 0.78 0.83 0.89
1.52 1.17 0.89 0.69 0.45 0.33 0.30 0.33 0.34 0.31 0.31 0.27 0.24 0.25 0.24 0.24 0.27 0.30 0.33 0.34 0.41 0.52 0.59 0.54 0.55 0.58 0.57 0.50 0.56 0.65 0.66 0.60 0.53 0.41 0.39 0.43 0.47 0.57 0.72 0.81 0.89 0.88 0.88
0.84 0.68 0.54 0.47 0.37 0.36 0.36 0.39 0.40 0.29 0.24 0.22 0.21 0.20 0.21 0.24 0.26 0.27 0.28 0.28 0.31 0.35 0.39 0.42 0.49 0.52 0.54 0.50 0.49 0.55 0.63 0.66 0.65 0.56 0.45 0.44 0.44 0.41 0.56 0.74 0.87 0.91 0.85
0.34 0.35 0.37 0.44 0.48 0.44 0.36 0.32 0.32 0.28 0.24 0.21 0.18 0.19 0.20 0.22 0.26 0.29 0.30 0.30 0.32 0.33 0.34 0.36 0.40 0.44 0.50 0.54 0.52 0.56 0.65 0.69 0.65 0.65 0.57 0.49 0.47 0.42 0.47 0.64 0.89 1.02 0.97

GEFSSE_prec_meanprecacc_078.txt.gz
Total_Precipitation_Accumulation
0.00 0.01 0.02 0.02 0.01 0.01 0.02 0.05 0.06 0.07 0.06 0.06 0.05 0.03 0.02 0.01 0.01 0.01 0.01 0.01 0.01 0.01 0.02 0.02 0.03 0.03 0.03 0.03 0.03 0.03 0.02 0.02 0.03 0.06 0.08 0.12 0.14 0.20 0.27 0.35 0.48 0.45 0.32
0.00 0.00 0.02 0.02 0.01 0.01 0.02 0.04 0.05 0.07 0.07 0.06 0.04 0.03 0.02 0.01 0.01 0.01 0.01 0.01 0.01 0.01 0.02 0.02 0.01 0.02 0.02 0.01 0.02 0.01 0.01 0.02 0.05 0.09 0.13 0.15 0.19 0.25 0.28 0.30 0.42 0.34 0.25
0.00 0.00 0.01 0.01 0.01 0.01 0.01 0.03 0.04 0.05 0.06 0.06 0.04 0.02 0.02 0.02 0.01 0.01 0.01 0.01 0.01 0.02 0.02 0.02 0.01 0.01 0.01 0.01 0.01 0.01 0.01 0.03 0.08 0.17 0.32 0.29 0.16 0.26 0.28 0.31 0.28 0.18 0.17
0.00 0.00 0.01 0.01 0.01 0.01 0.01 0.02 0.04 0.05 0.05 0.05 0.03 0.02 0.02 0.01 0.01 0.01 0.01 0.02 0.02 0.03 0.03 0.02 0.02 0.01 0.01 0.01 0.00 0.01 0.01 0.03 0.09 0.21 0.48 0.39 0.17 0.19 0.20 0.21 0.17 0.11 0.10
0.00 0.00 0.01 0.01 0.01 0.01 0.01 0.02 0.03 0.05 0.05 0.04 0.02 0.02 0.02 0.02 0.01 0.02 0.02 0.03 0.03 0.04 0.04 0.04 0.03 0.01 0.01 0.01 0.00 0.01 0.02 0.04 0.11 0.23 0.31 0.39 0.43 0.24 0.16 0.14 0.13 0.10 0.08
0.00 0.00 0.01 0.01 0.01 0.01 0.01 0.02 0.03 0.04 0.04 0.03 0.02 0.02 0.02 0.02 0.02 0.03 0.03 0.04 0.04 0.06 0.05 0.04 0.03 0.02 0.01 0.01 0.01 0.01 0.02 0.05 0.12 0.17 0.17 0.27 0.41 0.28 0.24 0.19 0.13 0.10 0.07
0.00 0.01 0.01 0.02 0.02 0.01 0.01 0.02 0.02 0.03 0.03 0.03 0.02 0.02 0.02 0.03 0.03 0.04 0.04 0.04 0.05 0.06 0.06 0.05 0.04 0.03 0.02 0.01 0.01 0.01 0.03 0.06 0.14 0.20 0.18 0.30 0.43 0.34 0.51 0.53 0.36 0.22 0.10
0.00 0.01 0.02 0.02 0.03 0.02 0.02 0.02 0.03 0.03 0.04 0.03 0.03 0.03 0.03 0.04 0.05 0.06 0.06 0.05 0.06 0.07 0.08 0.08 0.06 0.05 0.04 0.03 0.02 0.04 0.07 0.09 0.13 0.20 0.25 0.36 0.36 0.37 0.72 0.84 0.68 0.52 0.34
0.01 0.01 0.02 0.03 0.04 0.04 0.04 0.04 0.04 0.04 0.05 0.05 0.05 0.05 0.05 0.05 0.06 0.07 0.08 0.09 0.10 0.12 0.12 0.11 0.10 0.09 0.07 0.07 0.08 0.12 0.14 0.14 0.15 0.21 0.25 0.37 0.33 0.41 0.81 0.86 0.68 0.59 0.46
0.03 0.02 0.03 0.04 0.07 0.07 0.07 0.07 0.06 0.07 0.07 0.07 0.06 0.08 0.09 0.09 0.10 0.13 0.13 0.13 0.15 0.18 0.19 0.18 0.18 0.19 0.18 0.15 0.15 0.14 0.13 0.09 0.11 0.15 0.23 0.34 0.37 0.57 0.88 0.92 0.84 0.75 0.59
0.07 0.05 0.04 0.06 0.08 0.09 0.10 0.11 0.12 0.13 0.13 0.12 0.14 0.15 0.15 0.19 0.24 0.30 0.28 0.32 0.33 0.34 0.34 0.35 0.36 0.39 0.38 0.32 0.29 0.26 0.19 0.15 0.20 0.12 0.20 0.36 0.49 0.71 0.89 0.99 0.97 0.90 0.78
0.10 0.07 0.08 0.12 0.11 0.14 0.15 0.22 0.30 0.32 0.38 0.32 0.36 0.38 0.40 0.44 0.38 0.32 0.42 0.57 0.65 0.75 0.74 0.74 0.83 0.81 0.63 0.44 0.55 0.79 0.36 0.26 0.23 0.18 0.28 0.37 0.54 0.76 0.94 1.03 0.93 0.88 0.84
0.13 0.10 0.13 0.17 0.17 0.20 0.22 0.26 0.37 0.50 0.69 0.67 0.65 0.75 0.76 0.73 0.59 0.48 0.58 0.78 0.89 1.04 1.02 1.21 1.43 1.15 1.02 0.94 0.97 1.00 0.65 0.52 0.39 0.32 0.42 0.65 0.78 0.97 1.11 1.07 1.03 0.97 0.91
0.25 0.23 0.26 0.32 0.34 0.36 0.42 0.45 0.49 0.55 0.66 0.72 0.77 0.84 1.01 1.00 0.93 0.87 0.85 0.90 0.99 1.10 1.30 1.45 1.56 1.62 1.62 1.38 1.24 1.14 1.00 0.92 0.74 0.64 0.81 1.11 1.15 1.22 1.30 1.17 1.12 1.05 1.01
0.43 0.52 0.60 0.62 0.60 0.63 0.70 0.69 0.59 0.59 0.61 0.65 0.82 0.94 1.14 1.23 1.25 1.29 1.23 1.20 1.10 1.26 1.52 1.73 1.68 1.83 1.94 1.77 1.51 1.37 1.22 1.06 0.97 0.93 1.10 1.28 1.18 1.14 1.24 1.24 1.21 1.15 1.13
0.69 0.89 0.93 0.93 0.95 0.95 0.96 0.93 0.85 0.77 0.77 0.80 0.96 1.09 1.37 1.47 1.51 1.57 1.48 1.38 1.16 1.25 1.49 1.72 1.76 1.91 1.88 1.87 1.50 1.40 1.26 1.22 1.10 1.06 1.14 1.25 1.22 1.07 1.04 1.13 1.21 1.25 1.27
0.95 1.09 1.16 1.25 1.37 1.47 1.44 1.26 1.10 0.96 0.95 1.04 1.24 1.44 1.65 1.79 1.83 1.85 1.68 1.44 1.32 1.51 1.62 1.62 1.67 2.03 1.86 1.72 1.51 1.57 1.52 1.43 1.25 1.16 1.20 1.22 1.06 0.99 0.93 0.92 1.05 1.20 1.35
1.18 1.32 1.47 1.65 1.87 1.97 1.83 1.63 1.52 1.45 1.47 1.44 1.50 1.66 1.71 1.78 1.86 1.99 1.69 1.39 1.55 1.74 1.71 1.64 1.68 1.89 1.89 1.94 1.81 1.69 1.59 1.45 1.14 1.07 1.06 1.00 0.98 0.78 0.83 0.97 1.02 1.08 1.35
1.60 1.81 2.04 2.32 2.44 2.27 2.07 1.90 1.82 1.73 1.62 1.45 1.29 1.25 1.22 1.23 1.29 1.34 1.04 0.98 1.25 1.34 1.22 1.19 1.44 1.59 1.60 1.73 1.73 1.49 1.30 1.13 0.95 0.90 0.90 0.74 0.79 0.76 0.73 0.90 1.02 1.04 1.30
1.93 2.43 2.82 2.85 2.51 2.17 1.91 1.70 1.60 1.46 1.35 1.22 1.03 0.93 0.84 0.82 0.85 0.89 0.72 0.73 0.99 1.05 0.97 1.09 1.19 1.23 1.17 1.25 1.16 0.92 0.89 0.77 0.77 0.73 0.63 0.63 0.62 0.59 0.65 0.78 0.93 0.83 1.12
2.46 3.12 3.29 2.85 2.40 1.99 1.71 1.45 1.20 0.99 0.93 0.88 0.74 0.69 0.69 0.71 0.74 0.83 0.72 0.80 0.95 0.95 0.92 0.98 1.04 0.96 0.81 0.98 1.04 0.75 0.60 0.56 0.58 0.54 0.50 0.50 0.45 0.48 0.62 0.76 0.88 0.90 0.78
2.35 2.77 2.73 2.27 1.82 1.34 1.04 0.93 0.82 0.70 0.61 0.51 0.48 0.52 0.49 0.55 0.63 0.72 0.66 0.58 0.63 0.65 0.60 0.65 0.82 0.84 0.74 0.87 0.96 0.83 0.58 0.53 0.49 0.37 0.42 0.42 0.41 0.51 0.60 0.65 0.81 0.95 0.92
2.10 1.97 1.80 1.37 0.89 0.66 0.50 0.48 0.43 0.41 0.41 0.33 0.30 0.33 0.32 0.35 0.39 0.47 0.50 0.50 0.55 0.62 0.61 0.61 0.65 0.69 0.63 0.64 0.79 0.90 0.69 0.47 0.40 0.37 0.39 0.39 0.45 0.57 0.65 0.76 0.81 0.86 0.93
1.53 1.18 0.89 0.70 0.46 0.33 0.30 0.33 0.34 0.31 0.31 0.27 0.24 0.25 0.24 0.24 0.27 0.30 0.33 0.34 0.41 0.52 0.59 0.54 0.55 0.58 0.57 0.50 0.56 0.65 0.66 0.60 0.53 0.41 0.39 0.44 0.48 0.59 0.74 0.82 0.91 0.91 0.92
0.84 0.68 0.55 0.49 0.40 0.38 0.37 0.39 0.40 0.29 0.24 0.22 0.21 0.20 0.21 0.24 0.26 0.27 0.28 0.28 0.31 0.35 0.39 0.42 0.49 0.52 0.54 0.50 0.49 0.56 0.63 0.66 0.65 0.57 0.45 0.45 0.44 0.41 0.56 0.75 0.89 0.93 0.88
0.35 0.36 0.39 0.49 0.53 0.46 0.36 0.32 0.32 0.28 0.24 0.21 0.18 0.19 0.20 0.22 0.26 0.29 0.30 0.30 0.32 0.33 0.34 0.36 0.40 0.44 0.50 0.54 0.53 0.56 0.65 0.70 0.65 0.65 0.57 0.49 0.47 0.42 0.47 0.65 0.90 1.03 0.99

GEFSSE_prec_meanprecacc_084.txt.gz
Total_Precipitation_Accumulation
0.02 0.04 0.07 0.06 0.02 0.01 0.02 0.05 0.06 0.07 0.06 0.06 0.05 0.04 0.02 0.01 0.01 0.01 0.01 0.01 0.01 0.02 0.02 0.03 0.03 0.03 0.04 0.03 0.04 0.03 0.03 0.02 0.05 0.08 0.12 0.16 0.18 0.25 0.34 0.42 0.54 0.50 0.37
0.01 0.02 0.07 0.08 0.04 0.02 0.02 0.04 0.06 0.07 0.07 0.06 0.05 0.03 0.02 0.02 0.02 0.01 0.01 0.01 0.01 0.02 0.02 0.02 0.02 0.02 0.02 0.02 0.02 0.02 0.01 0.03 0.07 0.13 0.20 0.22 0.25 0.33 0.35 0.36 0.48 0.38 0.30
0.01 0.02 0.04 0.07 0.04 0.02 0.02 0.03 0.05 0.05 0.06 0.06 0.04 0.02 0.02 0.02 0.01 0.01 0.01 0.01 0.02 0.02 0.03 0.02 0.02 0.02 0.02 0.01 0.01 0.01 0.02 0.05 0.11 0.20 0.35 0.33 0.22 0.36 0.36 0.39 0.35 0.23 0.21
0.01 0.01 0.02 0.04 0.04 0.02 0.02 0.03 0.05 0.06 0.06 0.05 0.04 0.02 0.02 0.02 0.01 0.01 0.02 0.02 0.02 0.03 0.03 0.03 0.02 0.01 0.01 0.01 0.01 0.01 0.03 0.07 0.13 0.23 0.49 0.40 0.19 0.26 0.26 0.26 0.22 0.14 0.13
0.01 0.01 0.02 0.03 0.03 0.02 0.02 0.03 0.04 0.05 0.05 0.04 0.03 0.02 0.02 0.02 0.02 0.02 0.03 0.03 0.03 0.04 0.04 0.04 0.03 0.01 0.01 0.01 0.01 0.02 0.04 0.09 0.17 0.24 0.31 0.39 0.45 0.29 0.21 0.19 0.17 0.12 0.09
0.02 0.02 0.03 0.04 0.04 0.03 0.02 0.03 0.04 0.05 0.04 0.04 0.02 0.02 0.02 0.02 0.03 0.03 0.04 0.04 0.04 0.06 0.05 0.04 0.04 0.02 0.01 0.01 0.01 0.03 0.05 0.10 0.15 0.17 0.17 0.28 0.42 0.32 0.28 0.22 0.16 0.11 0.08
0.02 0.02 0.03 0.04 0.04 0.03 0.02 0.03 0.03 0.04 0.04 0.03 0.03 0.03 0.03 0.04 0.04 0.05 0.05 0.05 0.06 0.07 0.07 0.06 0.04 0.03 0.02 0.02 0.02 0.03 0.06 0.10 0.16 0.21 0.19 0.30 0.44 0.37 0.54 0.55 0.37 0.23 0.11
0.02 0.02 0.03 0.04 0.04 0.04 0.03 0.03 0.03 0.04 0.04 0.04 0.04 0.04 0.04 0.05 0.06 0.07 0.07 0.07 0.08 0.08 0.09 0.09 0.07 0.06 0.04 0.03 0.03 0.06 0.10 0.12 0.14 0.22 0.26 0.37 0.38 0.40 0.75 0.86 0.69 0.53 0.35
0.04 0.03 0.03 0.04 0.05 0.05 0.05 0.05 0.04 0.05 0.05 0.05 0.05 0.06 0.06 0.06 0.07 0.09 0.10 0.11 0.11 0.14 0.14 0.13 0.12 0.10 0.08 0.07 0.09 0.13 0.16 0.17 0.17 0.22 0.26 0.38 0.36 0.45 0.85 0.88 0.70 0.60 0.47
0.07 0.06 0.05 0.05 0.07 0.08 0.08 0.08 0.07 0.07 0.08 0.07 0.08 0.09 0.11 0.12 0.13 0.17 0.17 0.17 0.21 0.23 0.24 0.23 0.22 0.23 0.21 0.18 0.17 0.16 0.15 0.10 0.12 0.17 0.24 0.36 0.41 0.63 0.93 0.95 0.87 0.77 0.59
0.10 0.08 0.07 0.08 0.09 0.10 0.10 0.12 0.14 0.14 0.14 0.14 0.16 0.17 0.19 0.21 0.27 0.35 0.34 0.41 0.42 0.42 0.43 0.43 0.44 0.47 0.44 0.36 0.33 0.29 0.21 0.17 0.20 0.13 0.22 0.37 0.53 0.78 0.97 1.04 1.00 0.92 0.79
0.13 0.10 0.11 0.14 0.13 0.15 0.16 0.23 0.31 0.35 0.40 0.35 0.38 0.41 0.42 0.45 0.40 0.36 0.49 0.68 0.77 0.86 0.85 0.85 0.93 0.89 0.69 0.49 0.59 0.82 0.38 0.28 0.24 0.20 0.29 0.39 0.58 0.83 1.04 1.11 0.99 0.92 0.86
0.21 0.16 0.16 0.20 0.20 0.22 0.24 0.28 0.40 0.53 0.72 0.70 0.69 0.78 0.78 0.76 0.63 0.54 0.66 0.87 0.97 1.13 1.10 1.29 1.51 1.20 1.07 0.99 1.01 1.03 0.68 0.55 0.41 0.34 0.44 0.68 0.83 1.06 1.22 1.17 1.12 1.04 0.96
0.37 0.33 0.34 0.39 0.41 0.41 0.47 0.49 0.54 0.60 0.70 0.76 0.80 0.86 1.04 1.03 0.98 0.91 0.90 0.94 1.03 1.13 1.35 1.49 1.61 1.67 1.67 1.43 1.31 1.20 1.05 0.96 0.79 0.68 0.83 1.15 1.22 1.31 1.44 1.30 1.23 1.15 1.09
0.61 0.68 0.76 0.73 0.71 0.73 0.78 0.75 0.65 0.66 0.68 0.71 0.87 0.98 1.18 1.27 1.29 1.32 1.25 1.23 1.13 1.28 1.54 1.74 1.71 1.87 1.99 1.81 1.55 1.42 1.27 1.11 1.01 0.98 1.13 1.33 1.26 1.25 1.38 1.41 1.37 1.28 1.25
0.87 1.11 1.15 1.09 1.09 1.07 1.05 0.99 0.92 0.84 0.84 0.85 1.00 1.13 1.40 1.50 1.53 1.58 1.49 1.40 1.17 1.26 1.50 1.74 1.78 1.92 1.90 1.89 1.54 1.44 1.31 1.27 1.14 1.09 1.18 1.30 1.29 1.17 1.17 1.31 1.41 1.42 1.42
1.17 1.32 1.37 1.43 1.50 1.56 1.51 1.31 1.15 1.00 0.99 1.08 1.28 1.47 1.66 1.79 1.83 1.85 1.68 1.44 1.33 1.51 1.62 1.63 1.67 2.04 1.87 1.73 1.52 1.58 1.53 1.46 1.28 1.18 1.22 1.26 1.10 1.06 1.02 1.06 1.22 1.37 1.55
1.44 1.55 1.67 1.80 1.99 2.05 1.89 1.67 1.55 1.48 1.51 1.47 1.53 1.67 1.71 1.79 1.87 1.99 1.69 1.39 1.55 1.74 1.71 1.64 1.68 1.89 1.89 1.95 1.82 1.70 1.60 1.46 1.15 1.09 1.07 1.02 1.01 0.82 0.89 1.08 1.17 1.23 1.54
1.91 2.07 2.24 2.49 2.58 2.35 2.11 1.93 1.85 1.77 1.67 1.48 1.30 1.26 1.23 1.23 1.29 1.34 1.04 0.98 1.25 1.34 1.22 1.19 1.44 1.59 1.60 1.73 1.73 1.49 1.30 1.13 0.96 0.91 0.91 0.75 0.81 0.78 0.75 0.95 1.13 1.20 1.47
2.22 2.67 3.01 2.99 2.60 2.23 1.94 1.73 1.63 1.48 1.38 1.23 1.04 0.93 0.84 0.82 0.85 0.89 0.72 0.73 0.99 1.05 0.97 1.09 1.19 1.23 1.17 1.25 1.16 0.92 0.89 0.77 0.77 0.73 0.64 0.63 0.63 0.60 0.67 0.80 0.98 0.91 1.24
2.67 3.30 3.42 2.94 2.46 2.03 1.74 1.47 1.22 1.00 0.93 0.88 0.74 0.69 0.69 0.71 0.74 0.83 0.72 0.80 0.95 0.95 0.92 0.98 1.04 0.96 0.81 0.98 1.04 0.75 0.60 0.56 0.58 0.54 0.50 0.50 0.45 0.50 0.64 0.79 0.92 0.94 0.83
2.52 2.90 2.84 2.35 1.86 1.37 1.06 0.95 0.83 0.70 0.61 0.51 0.48 0.52 0.49 0.55 0.63 0.72 0.66 0.58 0.63 0.65 0.60 0.65 0.82 0.84 0.74 0.87 0.96 0.83 0.58 0.53 0.49 0.37 0.42 0.42 0.42 0.51 0.62 0.68 0.84 0.99 0.96
2.24 2.06 1.86 1.42 0.92 0.68 0.51 0.48 0.43 0.41 0.41 0.33 0.30 0.33 0.32 0.35 0.39 0.47 0.50 0.50 0.55 0.62 0.61 0.61 0.65 0.69 0.63 0.64 0.79 0.90 0.69 0.47 0.40 0.37 0.39 0.39 0.45 0.58 0.65 0.77 0.82 0.88 0.95
1.61 1.23 0.93 0.72 0.48 0.34 0.31 0.34 0.34 0.31 0.31 0.27 0.24 0.25 0.24 0.24 0.27 0.30 0.33 0.34 0.41 0.52 0.59 0.54 0.55 0.58 0.57 0.50 0.56 0.65 0.66 0.60 0.53 0.41 0.39 0.44 0.48 0.59 0.74 0.83 0.91 0.92 0.93
0.87 0.70 0.57 0.51 0.41 0.39 0.38 0.39 0.40 0.29 0.24 0.22 0.21 0.20 0.21 0.24 0.26 0.27 0.28 0.28 0.31 0.35 0.39 0.42 0.49 0.52 0.54 0.50 0.49 0.56 0.63 0.66 0.65 0.57 0.45 0.45 0.44 0.41 0.56 0.75 0.89 0.93 0.88
0.36 0.38 0.40 0.50 0.54 0.46 0.37 0.32 0.32 0.28 0.24 0.21 0.18 0.19 0.20 0.22 0.26 0.29 0.30 0.30 0.32 0.33 0.34 0.36 0.40 0.44 0.50 0.54 0.53 0.56 0.65 0.70 0.65 0.65 0.57 0.49 0.47 0.42 0.47 0.65 0.90 1.03 0.99

GEFSSE_prec_meanprecacc_090.txt.gz
Total_Precipitation_Accumulation
0.02 0.04 0.09 0.08 0.04 0.03 0.04 0.06 0.07 0.08 0.07 0.06 0.05 0.04 0.03 0.02 0.02 0.01 0.01 0.01 0.02 0.02 0.03 0.03 0.04 0.04 0.04 0.04 0.04 0.04 0.03 0.03 0.06 0.09 0.14 0.18 0.21 0.30 0.41 0.52 0.62 0.55 0.41
0.01 0.03 0.08 0.09 0.06 0.03 0.04 0.05 0.07 0.08 0.07 0.06 0.05 0.03 0.02 0.02 0.02 0.02 0.02 0.02 0.02 0.02 0.03 0.03 0.02 0.02 0.02 0.02 0.02 0.02 0.02 0.04 0.09 0.15 0.22 0.26 0.29 0.39 0.40 0.42 0.54 0.43 0.33
0.01 0.02 0.05 0.09 0.06 0.04 0.04 0.05 0.05 0.06 0.06 0.06 0.04 0.02 0.02 0.02 0.02 0.02 0.02 0.02 0.02 0.03 0.03 0.03 0.02 0.02 0.02 0.02 0.02 0.01 0.02 0.06 0.13 0.23 0.38 0.38 0.25 0.40 0.39 0.41 0.39 0.25 0.23
0.01 0.02 0.02 0.06 0.07 0.05 0.04 0.05 0.06 0.06 0.06 0.06 0.04 0.02 0.02 0.02 0.02 0.02 0.02 0.03 0.03 0.04 0.04 0.03 0.03 0.02 0.02 0.01 0.01 0.02 0.04 0.09 0.15 0.25 0.51 0.43 0.21 0.28 0.29 0.30 0.25 0.17 0.16
0.02 0.02 0.02 0.04 0.06 0.05 0.05 0.05 0.05 0.05 0.05 0.04 0.03 0.02 0.02 0.02 0.02 0.03 0.03 0.04 0.04 0.05 0.05 0.05 0.04 0.02 0.01 0.01 0.02 0.03 0.06 0.11 0.19 0.26 0.33 0.42 0.49 0.32 0.25 0.23 0.22 0.16 0.13
0.02 0.02 0.04 0.06 0.07 0.07 0.06 0.05 0.06 0.05 0.05 0.04 0.03 0.02 0.03 0.03 0.03 0.04 0.05 0.05 0.05 0.06 0.06 0.06 0.05 0.03 0.02 0.02 0.02 0.04 0.07 0.13 0.18 0.20 0.19 0.30 0.46 0.34 0.31 0.26 0.20 0.15 0.11
0.03 0.03 0.05 0.09 0.08 0.07 0.06 0.06 0.05 0.05 0.04 0.03 0.03 0.03 0.03 0.04 0.05 0.06 0.06 0.06 0.06 0.07 0.08 0.07 0.05 0.04 0.03 0.02 0.03 0.05 0.09 0.14 0.19 0.23 0.21 0.34 0.48 0.39 0.57 0.59 0.41 0.25 0.13
0.03 0.04 0.06 0.08 0.08 0.08 0.07 0.06 0.05 0.05 0.04 0.04 0.04 0.04 0.05 0.06 0.07 0.09 0.09 0.08 0.09 0.09 0.10 0.10 0.08 0.06 0.05 0.04 0.04 0.07 0.13 0.15 0.17 0.23 0.28 0.40 0.41 0.42 0.79 0.89 0.72 0.55 0.36
0.05 0.04 0.06 0.06 0.08 0.09 0.09 0.08 0.07 0.06 0.06 0.06 0.06 0.07 0.07 0.08 0.09 0.11 0.12 0.12 0.13 0.15 0.15 0.15 0.14 0.12 0.09 0.08 0.10 0.14 0.18 0.19 0.20 0.25 0.28 0.42 0.38 0.47 0.89 0.93 0.74 0.63 0.48
0.09 0.08 0.07 0.08 0.11 0.11 0.11 0.10 0.10 0.09 0.09 0.09 0.09 0.11 0.13 0.13 0.15 0.19 0.18 0.19 0.22 0.24 0.26 0.26 0.26 0.26 0.24 0.20 0.18 0.17 0.16 0.12 0.14 0.19 0.28 0.39 0.43 0.67 0.97 0.99 0.90 0.80 0.62
0.13 0.11 0.11 0.12 0.12 0.13 0.13 0.14 0.16 0.17 0.17 0.16 0.18 0.19 0.21 0.25 0.31 0.38 0.37 0.43 0.44 0.46 0.48 0.49 0.49 0.51 0.48 0.39 0.34 0.31 0.22 0.18 0.21 0.15 0.26 0.41 0.56 0.84 1.05 1.10 1.04 0.96 0.82
0.15 0.11 0.14 0.17 0.15 0.17 0.18 0.26 0.36 0.39 0.44 0.39 0.44 0.46 0.48 0.52 0.46 0.41 0.52 0.73 0.82 0.92 0.92 0.91 0.99 0.93 0.73 0.52 0.62 0.84 0.40 0.28 0.24 0.21 0.32 0.42 0.64 0.90 1.13 1.21 1.06 0.97 0.90
0.23 0.17 0.17 0.23 0.23 0.25 0.28 0.32 0.45 0.60 0.79 0.76 0.75 0.85 0.85 0.82 0.69 0.60 0.72 0.93 1.03 1.18 1.17 1.35 1.55 1.25 1.13 1.05 1.06 1.06 0.70 0.56 0.42 0.35 0.46 0.70 0.89 1.15 1.35 1.30 1.23 1.12 1.02
0.42 0.36 0.36 0.41 0.45 0.46 0.52 0.55 0.60 0.67 0.78 0.85 0.89 0.94 1.10 1.10 1.04 0.97 0.95 0.99 1.09 1.20 1.43 1.56 1.68 1.73 1.73 1.49 1.36 1.24 1.08 0.99 0.81 0.70 0.86 1.18 1.26 1.40 1.59 1.48 1.39 1.29 1.20
0.66 0.72 0.79 0.77 0.76 0.80 0.86 0.83 0.73 0.76 0.79 0.82 0.96 1.06 1.25 1.33 1.35 1.37 1.29 1.27 1.16 1.31 1.58 1.79 1.76 1.92 2.04 1.86 1.61 1.47 1.31 1.15 1.06 1.02 1.16 1.36 1.30 1.33 1.51 1.60 1.57 1.48 1.42
0.96 1.17 1.20 1.15 1.16 1.18 1.18 1.12 1.05 0.98 0.95 0.94 1.08 1.23 1.48 1.57 1.58 1.61 1.52 1.42 1.19 1.28 1.51 1.76 1.81 1.96 1.93 1.93 1.57 1.47 1.34 1.30 1.18 1.13 1.22 1.35 1.34 1.22 1.25 1.45 1.59 1.64 1.61
1.29 1.42 1.45 1.50 1.59 1.69 1.65 1.46 1.30 1.15 1.09 1.16 1.36 1.57 1.75 1.85 1.87 1.88 1.70 1.46 1.34 1.52 1.63 1.64 1.69 2.05 1.89 1.74 1.53 1.60 1.56 1.49 1.31 1.21 1.25 1.30 1.15 1.09 1.08 1.15 1.36 1.55 1.75
1.62 1.73 1.81 1.89 2.10 2.18 2.03 1.80 1.67 1.59 1.59 1.54 1.60 1.75 1.77 1.82 1.89 2.01 1.70 1.40 1.56 1.75 1.71 1.64 1.68 1.89 1.89 1.95 1.83 1.70 1.60 1.47 1.16 1.11 1.10 1.05 1.07 0.86 0.94 1.14 1.27 1.35 1.68
2.14 2.33 2.44 2.65 2.74 2.51 2.26 2.04 1.94 1.84 1.73 1.55 1.36 1.31 1.26 1.25 1.31 1.35 1.05 0.98 1.26 1.34 1.22 1.19 1.44 1.59 1.60 1.73 1.74 1.50 1.30 1.14 0.96 0.91 0.92 0.78 0.85 0.83 0.82 1.02 1.19 1.28 1.59
2.43 2.91 3.20 3.17 2.77 2.39 2.06 1.80 1.69 1.53 1.43 1.27 1.08 0.96 0.85 0.83 0.85 0.89 0.72 0.73 0.99 1.05 0.97 1.09 1.19 1.24 1.18 1.25 1.16 0.92 0.89 0.77 0.77 0.73 0.64 0.64 0.64 0.63 0.72 0.87 1.07 1.00 1.34
2.81 3.46 3.58 3.11 2.61 2.16 1.83 1.53 1.25 1.04 0.96 0.91 0.77 0.71 0.70 0.72 0.74 0.83 0.72 0.80 0.95 0.95 0.92 0.98 1.04 0.97 0.81 0.98 1.04 0.75 0.60 0.56 0.58 0.54 0.50 0.50 0.46 0.51 0.66 0.83 0.99 1.03 0.95
2.64 3.01 2.96 2.48 1.98 1.47 1.15 1.02 0.86 0.72 0.63 0.53 0.49 0.52 0.49 0.55 0.63 0.72 0.67 0.58 0.63 0.65 0.61 0.65 0.82 0.84 0.74 0.87 0.96 0.83 0.59 0.53 0.49 0.37 0.42 0.42 0.42 0.51 0.62 0.70 0.88 1.05 1.05
2.34 2.15 1.95 1.52 1.00 0.75 0.57 0.52 0.45 0.43 0.42 0.34 0.31 0.33 0.32 0.35 0.39 0.47 0.50 0.50 0.55 0.62 0.61 0.61 0.65 0.69 0.63 0.64 0.79 0.90 0.69 0.47 0.40 0.37 0.39 0.39 0.45 0.58 0.66 0.78 0.84 0.90 0.99
1.68 1.30 1.00 0.81 0.54 0.39 0.35 0.36 0.37 0.33 0.33 0.28 0.24 0.25 0.24 0.24 0.27 0.30 0.34 0.34 0.41 0.52 0.59 0.54 0.55 0.58 0.57 0.50 0.56 0.65 0.66 0.60 0.53 0.41 0.40 0.44 0.48 0.59 0.74 0.83 0.92 0.93 0.95
0.92 0.75 0.61 0.58 0.47 0.42 0.40 0.41 0.43 0.31 0.25 0.22 0.21 0.20 0.21 0.24 0.26 0.27 0.28 0.28 0.31 0.35 0.39 0.42 0.49 0.52 0.54 0.50 0.49 0.56 0.63 0.66 0.65 0.57 0.45 0.45 0.44 0.41 0.56 0.75 0.89 0.94 0.89
0.39 0.40 0.43 0.55 0.58 0.48 0.38 0.34 0.34 0.29 0.24 0.21 0.18 0.19 0.20 0.22 0.26 0.29 0.30 0.30 0.32 0.33 0.34 0.36 0.40 0.44 0.50 0.54 0.53 0.56 0.65 0.70 0.65 0.65 0.57 0.50 0.47 0.42 0.47 0.65 0.90 1.03 0.99

GEFSSE_prec_meanprecacc_096.txt.gz
Total_Precipitation_Accumulation
0.02 0.04 0.09 0.08 0.04 0.04 0.06 0.09 0.11 0.10 0.08 0.07 0.06 0.04 0.03 0.02 0.02 0.02 0.02 0.03 0.03 0.04 0.04 0.04 0.04 0.04 0.04 0.04 0.04 0.04 0.03 0.04 0.07 0.11 0.16 0.20 0.23 0.33 0.44 0.59 0.78 0.66 0.44
0.01 0.03 0.08 0.10 0.06 0.05 0.06 0.08 0.10 0.10 0.09 0.07 0.06 0.04 0.03 0.02 0.02 0.02 0.02 0.03 0.03 0.04 0.04 0.03 0.03 0.03 0.03 0.03 0.02 0.02 0.02 0.04 0.10 0.18 0.26 0.29 0.31 0.41 0.44 0.51 0.74 0.54 0.36
0.01 0.02 0.05 0.09 0.07 0.06 0.05 0.07 0.08 0.08 0.08 0.07 0.05 0.03 0.03 0.03 0.03 0.02 0.02 0.03 0.04 0.04 0.04 0.03 0.03 0.03 0.03 0.03 0.02 0.02 0.03 0.07 0.17 0.30 0.56 0.52 0.28 0.42 0.43 0.49 0.53 0.33 0.27
0.01 0.02 0.02 0.06 0.08 0.06 0.06 0.06 0.08 0.08 0.07 0.06 0.04 0.03 0.03 0.02 0.03 0.03 0.03 0.04 0.04 0.05 0.05 0.04 0.03 0.03 0.02 0.02 0.03 0.04 0.06 0.10 0.18 0.38 0.76 0.57 0.27 0.29 0.32 0.34 0.32 0.22 0.20
0.02 0.02 0.02 0.05 0.06 0.06 0.06 0.07 0.07 0.07 0.06 0.05 0.03 0.03 0.03 0.03 0.03 0.03 0.04 0.05 0.05 0.06 0.06 0.06 0.05 0.02 0.01 0.02 0.03 0.05 0.07 0.12 0.23 0.38 0.45 0.53 0.58 0.35 0.28 0.27 0.27 0.21 0.18
0.02 0.02 0.04 0.07 0.07 0.07 0.07 0.07 0.08 0.07 0.05 0.04 0.03 0.03 0.03 0.03 0.04 0.05 0.05 0.06 0.06 0.07 0.07 0.06 0.05 0.03 0.02 0.02 0.03 0.05 0.08 0.14 0.26 0.30 0.26 0.38 0.52 0.37 0.34 0.31 0.26 0.21 0.16
0.03 0.03 0.05 0.09 0.09 0.08 0.07 0.08 0.07 0.06 0.05 0.04 0.03 0.03 0.04 0.05 0.05 0.06 0.07 0.07 0.07 0.08 0.08 0.07 0.05 0.04 0.03 0.03 0.03 0.05 0.09 0.16 0.28 0.28 0.25 0.43 0.53 0.40 0.59 0.64 0.47 0.31 0.17
0.04 0.04 0.06 0.08 0.09 0.09 0.08 0.08 0.08 0.07 0.06 0.05 0.05 0.05 0.05 0.06 0.08 0.09 0.09 0.08 0.09 0.10 0.11 0.10 0.08 0.07 0.05 0.04 0.04 0.07 0.13 0.16 0.22 0.28 0.32 0.48 0.42 0.43 0.81 0.93 0.77 0.60 0.39
0.06 0.05 0.06 0.07 0.09 0.10 0.11 0.10 0.09 0.08 0.08 0.07 0.07 0.07 0.08 0.08 0.09 0.11 0.12 0.12 0.13 0.15 0.16 0.15 0.14 0.12 0.10 0.08 0.10 0.15 0.19 0.20 0.25 0.30 0.34 0.50 0.40 0.48 0.90 0.95 0.77 0.67 0.52
0.10 0.09 0.08 0.09 0.13 0.13 0.12 0.12 0.11 0.11 0.10 0.09 0.09 0.11 0.13 0.14 0.16 0.20 0.19 0.20 0.23 0.25 0.26 0.26 0.26 0.26 0.24 0.20 0.18 0.18 0.16 0.13 0.16 0.24 0.44 0.52 0.45 0.67 0.98 1.00 0.93 0.83 0.66
0.15 0.13 0.12 0.14 0.15 0.16 0.16 0.15 0.17 0.18 0.17 0.17 0.20 0.20 0.24 0.35 0.43 0.48 0.42 0.45 0.45 0.47 0.49 0.50 0.50 0.51 0.48 0.39 0.35 0.31 0.22 0.18 0.26 0.24 0.47 0.53 0.58 0.85 1.07 1.12 1.08 0.99 0.86
0.20 0.14 0.16 0.20 0.18 0.20 0.21 0.28 0.40 0.43 0.48 0.46 0.52 0.52 0.59 0.67 0.62 0.54 0.61 0.76 0.84 0.94 0.95 0.93 1.00 0.95 0.75 0.56 0.66 0.86 0.40 0.30 0.30 0.30 0.39 0.46 0.66 0.93 1.17 1.25 1.10 1.01 0.94
0.26 0.20 0.21 0.26 0.27 0.28 0.35 0.38 0.52 0.69 0.88 0.86 0.84 0.93 0.97 0.92 0.77 0.69 0.84 1.04 1.13 1.26 1.27 1.44 1.60 1.31 1.19 1.12 1.13 1.09 0.71 0.61 0.49 0.41 0.56 0.78 0.93 1.18 1.41 1.35 1.28 1.17 1.09
0.48 0.41 0.41 0.48 0.51 0.52 0.58 0.63 0.68 0.74 0.87 0.97 0.99 1.00 1.18 1.18 1.12 1.07 1.06 1.10 1.20 1.31 1.53 1.65 1.76 1.81 1.79 1.53 1.39 1.27 1.11 1.02 0.85 0.79 1.01 1.27 1.30 1.43 1.64 1.54 1.45 1.34 1.25
0.78 0.81 0.87 0.86 0.84 0.89 0.96 0.93 0.81 0.84 0.87 0.92 1.06 1.11 1.30 1.40 1.43 1.45 1.36 1.33 1.21 1.36 1.63 1.83 1.79 1.94 2.07 1.89 1.63 1.51 1.34 1.18 1.09 1.06 1.24 1.43 1.32 1.35 1.56 1.66 1.64 1.54 1.50
1.11 1.30 1.31 1.25 1.25 1.26 1.26 1.23 1.15 1.05 1.02 1.03 1.14 1.27 1.51 1.62 1.64 1.66 1.55 1.46 1.23 1.30 1.53 1.78 1.82 1.98 1.96 1.97 1.60 1.49 1.36 1.34 1.21 1.16 1.27 1.44 1.38 1.24 1.29 1.51 1.68 1.74 1.72
1.43 1.57 1.58 1.62 1.69 1.78 1.76 1.54 1.35 1.18 1.11 1.21 1.41 1.61 1.77 1.89 1.90 1.91 1.73 1.49 1.37 1.55 1.65 1.65 1.70 2.07 1.91 1.77 1.55 1.61 1.57 1.50 1.32 1.24 1.29 1.37 1.23 1.16 1.12 1.19 1.42 1.62 1.84
1.79 1.89 1.95 1.98 2.21 2.29 2.15 1.90 1.73 1.63 1.63 1.58 1.64 1.81 1.80 1.84 1.90 2.03 1.72 1.42 1.58 1.77 1.72 1.65 1.69 1.91 1.90 1.96 1.84 1.71 1.61 1.47 1.17 1.12 1.12 1.09 1.14 0.95 1.03 1.20 1.31 1.40 1.74
2.33 2.49 2.59 2.79 2.89 2.64 2.37 2.15 2.01 1.90 1.79 1.59 1.41 1.36 1.29 1.26 1.32 1.37 1.06 0.99 1.26 1.35 1.23 1.20 1.45 1.60 1.60 1.74 1.74 1.50 1.31 1.15 0.97 0.92 0.93 0.79 0.88 0.88 0.89 1.09 1.26 1.33 1.64
2.60 3.07 3.36 3.33 2.92 2.51 2.18 1.90 1.75 1.59 1.46 1.30 1.11 0.99 0.87 0.84 0.87 0.90 0.73 0.73 0.99 1.05 0.97 1.09 1.20 1.24 1.18 1.25 1.16 0.92 0.89 0.77 0.78 0.74 0.65 0.65 0.66 0.67 0.78 0.94 1.15 1.06 1.41
2.95 3.60 3.72 3.24 2.74 2.29 1.94 1.63 1.33 1.08 0.99 0.94 0.80 0.73 0.71 0.73 0.75 0.83 0.72 0.80 0.95 0.95 0.92 0.98 1.04 0.97 0.81 0.98 1.04 0.76 0.60 0.56 0.58 0.54 0.51 0.50 0.46 0.51 0.70 0.90 1.07 1.12 1.04
2.76 3.14 3.08 2.61 2.09 1.57 1.24 1.11 0.95 0.79 0.68 0.58 0.52 0.54 0.50 0.56 0.63 0.72 0.67 0.58 0.63 0.66 0.61 0.65 0.82 0.84 0.74 0.87 0.96 0.84 0.60 0.55 0.50 0.37 0.42 0.42 0.42 0.52 0.64 0.74 0.95 1.12 1.12
2.45 2.26 2.04 1.63 1.11 0.85 0.66 0.60 0.53 0.51 0.48 0.39 0.34 0.35 0.33 0.35 0.39 0.47 0.50 0.50 0.55 0.62 0.61 0.61 0.65 0.69 0.63 0.64 0.79 0.90 0.70 0.49 0.42 0.38 0.39 0.39 0.45 0.58 0.67 0.80 0.86 0.94 1.04
1.77 1.40 1.08 0.91 0.64 0.48 0.43 0.43 0.43 0.38 0.38 0.31 0.27 0.26 0.24 0.24 0.27 0.30 0.34 0.34 0.41 0.52 0.59 0.55 0.55 0.58 0.57 0.50 0.56 0.65 0.66 0.61 0.54 0.42 0.40 0.44 0.48 0.59 0.74 0.83 0.93 0.95 0.98
0.98 0.82 0.70 0.68 0.55 0.49 0.47 0.47 0.48 0.34 0.27 0.24 0.22 0.21 0.21 0.24 0.26 0.27 0.28 0.29 0.32 0.36 0.39 0.43 0.49 0.52 0.54 0.50 0.49 0.56 0.63 0.66 0.65 0.57 0.47 0.46 0.44 0.41 0.56 0.75 0.90 0.95 0.91
0.43 0.46 0.49 0.61 0.64 0.53 0.43 0.38 0.37 0.32 0.27 0.23 0.19 0.19 0.20 0.22 0.26 0.29 0.30 0.31 0.33 0.33 0.34 0.37 0.40 0.44 0.50 0.54 0.53 0.56 0.65 0.70 0.66 0.65 0.57 0.50 0.47 0.42 0.47 0.65 0.90 1.03 1.00

GEFSSE_prec_meanprecacc_102.txt.gz
Total_Precipitation_Accumulation
0.03 0.04 0.09 0.08 0.04 0.04 0.06 0.10 0.11 0.11 0.09 0.08 0.06 0.04 0.03 0.02 0.02 0.02 0.02 0.03 0.04 0.04 0.04 0.05 0.05 0.05 0.05 0.06 0.07 0.07 0.06 0.07 0.11 0.16 0.21 0.24 0.27 0.38 0.50 0.63 0.81 0.67 0.45
0.01 0.03 0.09 0.10 0.06 0.05 0.07 0.09 0.10 0.11 0.09 0.08 0.06 0.04 0.03 0.02 0.03 0.03 0.03 0.03 0.04 0.04 0.05 0.04 0.03 0.03 0.04 0.04 0.04 0.04 0.04 0.08 0.15 0.25 0.32 0.32 0.34 0.46 0.49 0.55 0.77 0.56 0.38
0.02 0.02 0.05 0.09 0.07 0.06 0.06 0.07 0.08 0.08 0.08 0.07 0.05 0.03 0.03 0.03 0.03 0.03 0.03 0.04 0.04 0.04 0.04 0.04 0.03 0.04 0.04 0.04 0.03 0.04 0.05 0.11 0.24 0.41 0.64 0.54 0.30 0.48 0.49 0.54 0.56 0.34 0.28
0.03 0.02 0.02 0.06 0.08 0.06 0.06 0.07 0.09 0.09 0.07 0.07 0.04 0.03 0.03 0.03 0.03 0.04 0.04 0.04 0.05 0.05 0.05 0.04 0.04 0.03 0.03 0.04 0.04 0.06 0.08 0.13 0.24 0.47 0.81 0.59 0.28 0.33 0.36 0.37 0.34 0.23 0.21
0.03 0.02 0.02 0.05 0.07 0.06 0.06 0.07 0.08 0.08 0.07 0.05 0.03 0.03 0.03 0.03 0.04 0.04 0.05 0.05 0.05 0.06 0.07 0.06 0.05 0.03 0.02 0.03 0.04 0.07 0.10 0.18 0.32 0.48 0.52 0.57 0.60 0.37 0.30 0.29 0.28 0.22 0.19
0.03 0.02 0.04 0.07 0.07 0.08 0.07 0.07 0.08 0.07 0.06 0.05 0.03 0.03 0.04 0.04 0.05 0.05 0.06 0.06 0.06 0.07 0.07 0.06 0.05 0.04 0.03 0.03 0.04 0.07 0.13 0.22 0.37 0.39 0.34 0.44 0.54 0.39 0.37 0.33 0.28 0.22 0.18
0.03 0.03 0.05 0.09 0.09 0.08 0.07 0.08 0.08 0.07 0.05 0.04 0.04 0.04 0.04 0.05 0.06 0.07 0.07 0.07 0.07 0.08 0.08 0.07 0.05 0.04 0.04 0.03 0.04 0.07 0.14 0.26 0.40 0.41 0.38 0.50 0.56 0.43 0.60 0.65 0.48 0.34 0.19
0.04 0.04 0.06 0.08 0.09 0.09 0.09 0.09 0.08 0.07 0.06 0.06 0.05 0.05 0.06 0.07 0.08 0.10 0.09 0.09 0.09 0.10 0.11 0.10 0.08 0.07 0.05 0.04 0.05 0.09 0.18 0.23 0.35 0.44 0.51 0.58 0.48 0.48 0.82 0.94 0.78 0.62 0.42
0.07 0.05 0.06 0.07 0.09 0.10 0.11 0.10 0.09 0.09 0.08 0.07 0.07 0.08 0.08 0.09 0.10 0.12 0.13 0.13 0.13 0.15 0.16 0.15 0.14 0.12 0.10 0.09 0.10 0.17 0.23 0.26 0.35 0.47 0.60 0.68 0.48 0.54 0.93 0.96 0.78 0.68 0.53
0.13 0.09 0.08 0.09 0.13 0.13 0.12 0.12 0.12 0.11 0.10 0.10 0.10 0.12 0.14 0.15 0.17 0.21 0.20 0.20 0.23 0.25 0.26 0.26 0.27 0.27 0.24 0.20 0.19 0.20 0.21 0.19 0.27 0.47 0.70 0.71 0.54 0.73 1.02 1.02 0.94 0.84 0.67
0.23 0.16 0.13 0.14 0.15 0.16 0.16 0.15 0.18 0.18 0.18 0.17 0.21 0.21 0.26 0.37 0.46 0.50 0.44 0.46 0.46 0.47 0.49 0.50 0.51 0.52 0.49 0.40 0.36 0.34 0.27 0.27 0.44 0.53 0.72 0.70 0.70 0.91 1.11 1.15 1.10 1.00 0.86
0.43 0.24 0.21 0.22 0.19 0.21 0.22 0.28 0.41 0.43 0.48 0.46 0.53 0.54 0.61 0.70 0.65 0.58 0.65 0.79 0.85 0.95 0.95 0.94 1.01 0.96 0.77 0.58 0.69 0.90 0.46 0.40 0.49 0.54 0.62 0.68 0.81 1.02 1.23 1.29 1.12 1.02 0.95
0.58 0.40 0.34 0.33 0.29 0.29 0.37 0.39 0.54 0.71 0.89 0.88 0.86 0.96 1.00 0.95 0.80 0.72 0.86 1.06 1.13 1.27 1.28 1.45 1.61 1.32 1.20 1.14 1.16 1.13 0.78 0.72 0.70 0.63 0.83 1.00 1.07 1.29 1.48 1.41 1.32 1.19 1.09
0.77 0.71 0.64 0.62 0.60 0.58 0.63 0.67 0.70 0.77 0.89 1.00 1.02 1.03 1.20 1.19 1.14 1.09 1.07 1.11 1.20 1.32 1.54 1.66 1.77 1.82 1.81 1.56 1.42 1.32 1.18 1.12 1.01 0.99 1.22 1.42 1.41 1.54 1.73 1.60 1.49 1.36 1.27
1.16 1.24 1.26 1.17 1.04 1.01 1.07 1.00 0.85 0.89 0.90 0.94 1.09 1.14 1.32 1.41 1.44 1.46 1.36 1.33 1.21 1.36 1.64 1.84 1.80 1.96 2.09 1.91 1.66 1.53 1.39 1.25 1.18 1.19 1.33 1.52 1.40 1.43 1.65 1.74 1.70 1.58 1.52
1.59 1.81 1.74 1.66 1.51 1.41 1.38 1.31 1.22 1.13 1.11 1.06 1.16 1.29 1.52 1.63 1.65 1.67 1.55 1.46 1.23 1.31 1.54 1.79 1.83 1.98 1.97 1.98 1.61 1.50 1.38 1.37 1.26 1.23 1.33 1.50 1.45 1.31 1.36 1.59 1.75 1.81 1.78
1.96 2.09 1.98 2.03 2.02 1.94 1.85 1.62 1.40 1.24 1.16 1.23 1.43 1.63 1.78 1.89 1.92 1.92 1.74 1.49 1.37 1.55 1.65 1.66 1.71 2.07 1.91 1.77 1.56 1.62 1.57 1.51 1.35 1.28 1.34 1.43 1.27 1.21 1.18 1.26 1.49 1.70 1.93
2.26 2.31 2.34 2.34 2.53 2.46 2.25 1.97 1.78 1.68 1.66 1.60 1.65 1.82 1.81 1.84 1.91 2.03 1.72 1.42 1.58 1.77 1.73 1.65 1.70 1.92 1.91 1.97 1.85 1.72 1.61 1.48 1.18 1.14 1.15 1.12 1.16 0.97 1.06 1.25 1.37 1.45 1.81
2.69 2.84 2.91 3.09 3.14 2.81 2.48 2.21 2.06 1.95 1.83 1.62 1.42 1.37 1.29 1.27 1.33 1.37 1.06 0.99 1.27 1.35 1.23 1.20 1.46 1.61 1.61 1.74 1.74 1.51 1.31 1.15 0.98 0.93 0.94 0.80 0.89 0.89 0.90 1.12 1.31 1.37 1.70
2.93 3.43 3.73 3.60 3.14 2.67 2.28 1.97 1.80 1.63 1.50 1.32 1.13 1.00 0.87 0.84 0.87 0.90 0.73 0.73 0.99 1.05 0.97 1.09 1.20 1.24 1.18 1.25 1.16 0.93 0.89 0.77 0.78 0.74 0.65 0.66 0.67 0.68 0.79 0.95 1.17 1.09 1.46
3.30 3.99 4.08 3.54 2.93 2.43 2.00 1.67 1.36 1.12 1.01 0.95 0.81 0.73 0.71 0.73 0.75 0.83 0.72 0.80 0.95 0.95 0.92 0.98 1.04 0.97 0.81 0.98 1.04 0.76 0.60 0.56 0.58 0.54 0.51 0.51 0.47 0.53 0.71 0.91 1.08 1.13 1.06
3.06 3.51 3.42 2.88 2.28 1.69 1.30 1.14 0.98 0.81 0.69 0.58 0.52 0.54 0.50 0.56 0.63 0.72 0.67 0.58 0.63 0.66 0.61 0.65 0.82 0.84 0.74 0.87 0.96 0.84 0.61 0.56 0.50 0.38 0.42 0.42 0.42 0.52 0.65 0.74 0.95 1.13 1.12
2.66 2.51 2.32 1.85 1.28 0.97 0.73 0.64 0.55 0.52 0.49 0.39 0.34 0.35 0.33 0.35 0.39 0.47 0.50 0.50 0.55 0.62 0.61 0.61 0.65 0.69 0.63 0.64 0.79 0.90 0.71 0.50 0.42 0.38 0.39 0.39 0.45 0.58 0.67 0.80 0.87 0.94 1.04
1.88 1.54 1.27 1.07 0.76 0.57 0.48 0.46 0.44 0.38 0.38 0.32 0.27 0.26 0.24 0.24 0.27 0.30 0.34 0.34 0.41 0.52 0.59 0.55 0.55 0.58 0.57 0.50 0.56 0.65 0.66 0.61 0.54 0.42 0.40 0.44 0.48 0.59 0.74 0.84 0.93 0.96 0.98
1.06 0.92 0.82 0.81 0.65 0.56 0.51 0.50 0.49 0.34 0.28 0.25 0.23 0.21 0.21 0.24 0.26 0.27 0.28 0.29 0.32 0.36 0.40 0.43 0.49 0.52 0.54 0.50 0.49 0.56 0.63 0.66 0.65 0.57 0.47 0.46 0.44 0.41 0.56 0.75 0.90 0.95 0.91
0.51 0.55 0.57 0.69 0.71 0.58 0.46 0.40 0.38 0.33 0.27 0.23 0.19 0.20 0.20 0.22 0.26 0.29 0.30 0.31 0.33 0.33 0.34 0.37 0.40 0.44 0.50 0.54 0.53 0.56 0.65 0.70 0.66 0.65 0.57 0.50 0.47 0.42 0.47 0.65 0.90 1.03 1.00